Time,TemperatureF,DewpointF,PressureIn,WindDirection,WindDirectionDegrees,WindSpeedMPH,WindSpeedGustMPH,Humidity,HourlyPrecipIn,Conditions,Clouds,dailyrainin,SoftwareType,DateUTC
2013-06-17 00:00:00,81.1,67.8,-100.00,SSE,149,4.0,6.0,64,0.00,,,0.00,meteohub,2013-06-17 05:00:00,
2013-06-17 00:02:00,81.1,67.8,-100.00,SSE,149,4.0,6.0,64,0.00,,,0.00,meteohub,2013-06-17 05:02:00,
2013-06-17 00:04:00,81.1,67.8,-100.00,SSE,149,4.0,6.0,64,0.00,,,0.00,meteohub,2013-06-17 05:04:00,
2013-06-17 00:06:00,81.1,67.8,-100.00,SSE,149,3.0,6.0,64,0.00,,,0.00,meteohub,2013-06-17 05:06:00,
2013-06-17 00:07:00,81.1,67.8,-100.00,SSE,149,3.0,6.0,64,0.00,,,0.00,meteohub,2013-06-17 05:07:00,
2013-06-17 00:09:00,81.1,67.8,-100.00,SSE,149,5.0,6.0,64,0.00,,,0.00,meteohub,2013-06-17 05:09:00,
2013-06-17 00:10:00,81.1,67.8,-100.00,SSE,149,3.0,6.0,64,0.00,,,0.00,meteohub,2013-06-17 05:10:00,
2013-06-17 00:11:00,81.1,67.8,-100.00,SSE,149,3.0,6.0,64,0.00,,,0.00,meteohub,2013-06-17 05:11:00,
2013-06-17 00:12:00,81.1,67.8,-100.00,SSE,149,4.0,6.0,64,0.00,,,0.00,meteohub,2013-06-17 05:12:00,
2013-06-17 00:15:00,81.0,67.6,-100.00,SSE,148,4.0,6.0,64,0.00,,,0.00,meteohub,2013-06-17 05:15:00,
2013-06-17 00:16:00,81.0,68.0,-100.00,SSE,148,5.0,7.0,65,0.00,,,0.00,meteohub,2013-06-17 05:16:00,
2013-06-17 00:17:00,81.0,68.0,-100.00,SSE,148,5.0,7.0,65,0.00,,,0.00,meteohub,2013-06-17 05:17:00,
2013-06-17 00:20:00,81.0,68.0,-100.00,SSE,148,5.0,7.0,65,0.00,,,0.00,meteohub,2013-06-17 05:20:00,
2013-06-17 00:21:00,80.8,68.0,-100.00,SSE,148,3.0,7.0,65,0.00,,,0.00,meteohub,2013-06-17 05:21:00,
2013-06-17 00:23:00,80.8,68.0,-100.00,SSE,148,4.0,7.0,65,0.00,,,0.00,meteohub,2013-06-17 05:23:00,
2013-06-17 00:25:00,80.8,68.0,-100.00,SSE,148,4.0,7.0,65,0.00,,,0.00,meteohub,2013-06-17 05:25:00,
2013-06-17 00:26:00,80.8,68.0,-100.00,SSE,148,6.0,7.0,65,0.00,,,0.00,meteohub,2013-06-17 05:26:00,
2013-06-17 00:27:00,81.0,68.0,-100.00,SSE,148,4.0,7.0,65,0.00,,,0.00,meteohub,2013-06-17 05:27:00,
2013-06-17 00:28:00,81.0,68.0,-100.00,SSE,148,3.0,7.0,65,0.00,,,0.00,meteohub,2013-06-17 05:28:00,
2013-06-17 00:29:00,81.0,68.0,-100.00,SSE,148,5.0,7.0,65,0.00,,,0.00,meteohub,2013-06-17 05:29:00,
2013-06-17 00:31:00,81.0,67.6,-100.00,SSE,148,4.0,7.0,64,0.00,,,0.00,meteohub,2013-06-17 05:31:00,
2013-06-17 00:32:00,81.1,67.8,-100.00,SSE,148,3.0,7.0,64,0.00,,,0.00,meteohub,2013-06-17 05:32:00,
2013-06-17 00:33:00,81.1,67.8,-100.00,SSE,148,3.0,7.0,64,0.00,,,0.00,meteohub,2013-06-17 05:33:00,
2013-06-17 00:34:00,81.1,67.8,-100.00,SSE,148,7.0,7.0,64,0.00,,,0.00,meteohub,2013-06-17 05:34:00,
2013-06-17 00:35:00,81.1,67.8,-100.00,SSE,148,4.0,7.0,64,0.00,,,0.00,meteohub,2013-06-17 05:35:00,
2013-06-17 00:36:00,81.1,67.8,-100.00,SSE,148,3.0,7.0,64,0.00,,,0.00,meteohub,2013-06-17 05:36:00,
2013-06-17 00:38:00,81.1,67.8,-100.00,SSE,149,5.0,7.0,64,0.00,,,0.00,meteohub,2013-06-17 05:38:00,
2013-06-17 00:39:00,81.1,67.8,-100.00,SSE,155,5.0,7.0,64,0.00,,,0.00,meteohub,2013-06-17 05:39:00,
2013-06-17 00:40:00,81.1,67.8,-100.00,SSE,155,6.0,7.0,64,0.00,,,0.00,meteohub,2013-06-17 05:40:00,
2013-06-17 00:41:00,81.1,67.8,-100.00,SSE,158,4.0,10.0,64,0.00,,,0.00,meteohub,2013-06-17 05:41:00,
2013-06-17 00:43:00,81.1,67.8,-100.00,SSE,157,6.0,10.0,64,0.00,,,0.00,meteohub,2013-06-17 05:43:00,
2013-06-17 00:44:00,81.1,67.8,-100.00,SSE,159,2.0,10.0,64,0.00,,,0.00,meteohub,2013-06-17 05:44:00,
2013-06-17 00:46:00,81.1,67.8,-100.00,SSE,163,6.0,10.0,64,0.00,,,0.00,meteohub,2013-06-17 05:46:00,
2013-06-17 00:48:00,81.1,67.8,-100.00,SSE,166,3.0,10.0,64,0.00,,,0.00,meteohub,2013-06-17 05:48:00,
2013-06-17 00:49:00,81.1,67.8,-100.00,SSE,166,4.0,10.0,64,0.00,,,0.00,meteohub,2013-06-17 05:49:00,
2013-06-17 00:51:00,81.1,67.8,-100.00,SSE,166,3.0,10.0,64,0.00,,,0.00,meteohub,2013-06-17 05:51:00,
2013-06-17 00:54:00,81.1,67.8,-100.00,SSE,166,4.0,10.0,64,0.00,,,0.00,meteohub,2013-06-17 05:54:00,
2013-06-17 00:56:00,81.1,67.8,-100.00,SSE,163,4.0,10.0,64,0.00,,,0.00,meteohub,2013-06-17 05:56:00,
2013-06-17 00:59:00,81.1,67.8,-100.00,SSE,163,5.0,10.0,64,0.00,,,0.00,meteohub,2013-06-17 05:59:00,
2013-06-17 01:00:00,81.1,67.8,-100.00,South,169,4.0,10.0,64,0.00,,,0.00,meteohub,2013-06-17 06:00:00,
2013-06-17 01:01:00,81.1,67.8,-100.00,South,169,5.0,9.0,64,0.00,,,0.00,meteohub,2013-06-17 06:01:00,
2013-06-17 01:02:00,81.1,67.8,-100.00,South,169,3.0,9.0,64,0.00,,,0.00,meteohub,2013-06-17 06:02:00,
2013-06-17 01:04:00,81.1,67.8,-100.00,SSE,167,7.0,9.0,64,0.00,,,0.00,meteohub,2013-06-17 06:04:00,
2013-06-17 01:05:00,81.1,67.8,-100.00,SSE,167,4.0,9.0,64,0.00,,,0.00,meteohub,2013-06-17 06:05:00,
2013-06-17 01:06:00,81.1,67.8,-100.00,South,169,7.0,9.0,64,0.00,,,0.00,meteohub,2013-06-17 06:06:00,
2013-06-17 01:08:00,81.1,68.2,-100.00,South,173,4.0,9.0,65,0.00,,,0.00,meteohub,2013-06-17 06:08:00,
2013-06-17 01:09:00,81.1,68.2,-100.00,South,172,5.0,9.0,65,0.00,,,0.00,meteohub,2013-06-17 06:09:00,
2013-06-17 01:10:00,81.1,68.2,-100.00,South,172,2.0,10.0,65,0.00,,,0.00,meteohub,2013-06-17 06:10:00,
2013-06-17 01:11:00,81.1,68.2,-100.00,South,172,2.0,10.0,65,0.00,,,0.00,meteohub,2013-06-17 06:11:00,
2013-06-17 01:12:00,81.1,68.2,-100.00,South,172,1.0,10.0,65,0.00,,,0.00,meteohub,2013-06-17 06:12:00,
2013-06-17 01:13:00,81.1,68.2,-100.00,South,172,5.0,10.0,65,0.00,,,0.00,meteohub,2013-06-17 06:13:00,
2013-06-17 01:15:00,81.1,68.2,-100.00,South,180,5.0,10.0,65,0.00,,,0.00,meteohub,2013-06-17 06:15:00,
2013-06-17 01:17:00,81.1,68.2,-100.00,South,180,4.0,10.0,65,0.00,,,0.00,meteohub,2013-06-17 06:17:00,
2013-06-17 01:19:00,81.0,68.0,-100.00,South,180,4.0,10.0,65,0.00,,,0.00,meteohub,2013-06-17 06:19:00,
2013-06-17 01:20:00,81.0,68.0,-100.00,South,177,3.0,10.0,65,0.00,,,0.00,meteohub,2013-06-17 06:20:00,
2013-06-17 01:21:00,81.0,68.0,-100.00,South,177,4.0,10.0,65,0.00,,,0.00,meteohub,2013-06-17 06:21:00,
2013-06-17 01:22:00,81.0,68.5,-100.00,South,176,3.0,10.0,66,0.00,,,0.00,meteohub,2013-06-17 06:22:00,
2013-06-17 01:25:00,80.8,68.4,-100.00,South,175,3.0,10.0,66,0.00,,,0.00,meteohub,2013-06-17 06:25:00,
2013-06-17 01:26:00,80.8,68.4,-100.00,South,175,4.0,10.0,66,0.00,,,0.00,meteohub,2013-06-17 06:26:00,
2013-06-17 01:27:00,80.8,68.4,-100.00,South,175,2.0,10.0,66,0.00,,,0.00,meteohub,2013-06-17 06:27:00,
2013-06-17 01:30:00,80.4,68.5,-100.00,South,175,2.0,10.0,67,0.00,,,0.00,meteohub,2013-06-17 06:30:00,
2013-06-17 01:32:00,80.4,68.5,-100.00,South,175,2.0,9.0,67,0.00,,,0.00,meteohub,2013-06-17 06:32:00,
2013-06-17 01:34:00,80.4,68.5,-100.00,South,175,4.0,9.0,67,0.00,,,0.00,meteohub,2013-06-17 06:34:00,
2013-06-17 01:35:00,80.4,68.5,-100.00,South,176,6.0,9.0,67,0.00,,,0.00,meteohub,2013-06-17 06:35:00,
2013-06-17 01:36:00,80.4,68.5,-100.00,South,176,4.0,9.0,67,0.00,,,0.00,meteohub,2013-06-17 06:36:00,
2013-06-17 01:37:00,80.4,68.5,-100.00,South,175,6.0,9.0,67,0.00,,,0.00,meteohub,2013-06-17 06:37:00,
2013-06-17 01:38:00,80.4,68.5,-100.00,South,175,4.0,9.0,67,0.00,,,0.00,meteohub,2013-06-17 06:38:00,
2013-06-17 01:39:00,80.4,68.5,-100.00,South,175,5.0,9.0,67,0.00,,,0.00,meteohub,2013-06-17 06:39:00,
2013-06-17 01:40:00,80.4,68.5,-100.00,South,175,4.0,9.0,67,0.00,,,0.00,meteohub,2013-06-17 06:40:00,
2013-06-17 01:41:00,80.4,68.5,-100.00,South,175,4.0,9.0,67,0.00,,,0.00,meteohub,2013-06-17 06:41:00,
2013-06-17 01:42:00,80.4,68.5,-100.00,South,174,4.0,9.0,67,0.00,,,0.00,meteohub,2013-06-17 06:42:00,
2013-06-17 01:43:00,80.4,68.5,-100.00,South,173,5.0,9.0,67,0.00,,,0.00,meteohub,2013-06-17 06:43:00,
2013-06-17 01:44:00,80.4,68.9,-100.00,South,173,4.0,9.0,68,0.00,,,0.00,meteohub,2013-06-17 06:44:00,
2013-06-17 01:46:00,80.2,68.7,-100.00,South,173,4.0,8.0,68,0.00,,,0.00,meteohub,2013-06-17 06:46:00,
2013-06-17 01:47:00,80.2,68.7,-100.00,South,171,4.0,8.0,68,0.00,,,0.00,meteohub,2013-06-17 06:47:00,
2013-06-17 01:48:00,80.2,68.7,-100.00,South,171,4.0,8.0,68,0.00,,,0.00,meteohub,2013-06-17 06:48:00,
2013-06-17 01:49:00,80.2,68.7,-100.00,South,171,3.0,8.0,68,0.00,,,0.00,meteohub,2013-06-17 06:49:00,
2013-06-17 01:51:00,80.2,68.7,-100.00,South,173,3.0,7.0,68,0.00,,,0.00,meteohub,2013-06-17 06:51:00,
2013-06-17 01:53:00,80.2,69.1,-100.00,South,173,3.0,7.0,69,0.00,,,0.00,meteohub,2013-06-17 06:53:00,
2013-06-17 01:54:00,80.2,69.1,-100.00,South,173,3.0,7.0,69,0.00,,,0.00,meteohub,2013-06-17 06:54:00,
2013-06-17 01:56:00,80.2,69.1,-100.00,SSE,163,9.0,10.0,69,0.00,,,0.00,meteohub,2013-06-17 06:56:00,
2013-06-17 01:58:00,80.2,69.1,-100.00,SSE,161,5.0,10.0,69,0.00,,,0.00,meteohub,2013-06-17 06:58:00,
2013-06-17 02:00:00,80.2,69.1,-100.00,SSE,159,4.0,10.0,69,0.00,,,0.00,meteohub,2013-06-17 07:00:00,
2013-06-17 02:02:00,80.2,69.1,-100.00,SSE,159,4.0,11.0,69,0.00,,,0.00,meteohub,2013-06-17 07:02:00,
2013-06-17 02:03:00,80.2,69.1,-100.00,SSE,159,4.0,11.0,69,0.00,,,0.00,meteohub,2013-06-17 07:03:00,
2013-06-17 02:05:00,80.2,69.1,-100.00,SSE,159,5.0,11.0,69,0.00,,,0.00,meteohub,2013-06-17 07:05:00,
2013-06-17 02:07:00,80.1,69.4,-100.00,SSE,159,4.0,11.0,70,0.00,,,0.00,meteohub,2013-06-17 07:07:00,
2013-06-17 02:08:00,80.1,69.4,-100.00,SSE,159,3.0,11.0,70,0.00,,,0.00,meteohub,2013-06-17 07:08:00,
2013-06-17 02:09:00,80.1,69.4,-100.00,SSE,159,4.0,11.0,70,0.00,,,0.00,meteohub,2013-06-17 07:09:00,
2013-06-17 02:10:00,80.1,69.4,-100.00,SSE,159,4.0,11.0,70,0.00,,,0.00,meteohub,2013-06-17 07:10:00,
2013-06-17 02:11:00,79.9,69.3,-100.00,SSE,159,6.0,11.0,70,0.00,,,0.00,meteohub,2013-06-17 07:11:00,
2013-06-17 02:12:00,79.9,69.3,-100.00,SSE,160,5.0,11.0,70,0.00,,,0.00,meteohub,2013-06-17 07:12:00,
2013-06-17 02:14:00,79.9,69.3,-100.00,SSE,161,6.0,11.0,70,0.00,,,0.00,meteohub,2013-06-17 07:14:00,
2013-06-17 02:15:00,79.9,69.3,-100.00,SSE,161,4.0,11.0,70,0.00,,,0.00,meteohub,2013-06-17 07:15:00,
2013-06-17 02:16:00,79.9,69.3,-100.00,SSE,160,8.0,9.0,70,0.00,,,0.00,meteohub,2013-06-17 07:16:00,
2013-06-17 02:18:00,79.9,69.6,-100.00,SSE,159,6.0,9.0,71,0.00,,,0.00,meteohub,2013-06-17 07:18:00,
2013-06-17 02:19:00,79.9,69.6,-100.00,SSE,161,9.0,9.0,71,0.00,,,0.00,meteohub,2013-06-17 07:19:00,
2013-06-17 02:20:00,79.9,69.6,-100.00,SSE,161,7.0,9.0,71,0.00,,,0.00,meteohub,2013-06-17 07:20:00,
2013-06-17 02:21:00,79.9,69.6,-100.00,SSE,157,7.0,9.0,71,0.00,,,0.00,meteohub,2013-06-17 07:21:00,
2013-06-17 02:23:00,79.9,69.6,-100.00,SSE,157,8.0,9.0,71,0.00,,,0.00,meteohub,2013-06-17 07:23:00,
2013-06-17 02:25:00,79.9,69.6,-100.00,SSE,157,2.0,9.0,71,0.00,,,0.00,meteohub,2013-06-17 07:25:00,
2013-06-17 02:27:00,79.9,69.6,-100.00,SSE,156,4.0,10.0,71,0.00,,,0.00,meteohub,2013-06-17 07:27:00,
2013-06-17 02:28:00,79.9,69.6,-100.00,SSE,157,5.0,10.0,71,0.00,,,0.00,meteohub,2013-06-17 07:28:00,
2013-06-17 02:30:00,79.5,69.3,-100.00,SSE,157,4.0,10.0,71,0.00,,,0.00,meteohub,2013-06-17 07:30:00,
2013-06-17 02:31:00,79.5,69.6,-100.00,SSE,157,3.0,10.0,72,0.00,,,0.00,meteohub,2013-06-17 07:31:00,
2013-06-17 02:32:00,79.5,69.6,-100.00,SSE,157,4.0,10.0,72,0.00,,,0.00,meteohub,2013-06-17 07:32:00,
2013-06-17 02:35:00,79.3,69.4,-100.00,SSE,157,2.0,10.0,72,0.00,,,0.00,meteohub,2013-06-17 07:35:00,
2013-06-17 02:36:00,79.3,69.4,-100.00,SSE,156,4.0,10.0,72,0.00,,,0.00,meteohub,2013-06-17 07:36:00,
2013-06-17 02:37:00,79.3,69.4,-100.00,SSE,156,3.0,10.0,72,0.00,,,0.00,meteohub,2013-06-17 07:37:00,
2013-06-17 02:40:00,79.3,70.0,-100.00,SSE,155,3.0,10.0,73,0.00,,,0.00,meteohub,2013-06-17 07:40:00,
2013-06-17 02:41:00,79.2,69.8,-100.00,SSE,155,3.0,9.0,73,0.00,,,0.00,meteohub,2013-06-17 07:41:00,
2013-06-17 02:42:00,79.2,69.8,-100.00,SSE,155,3.0,9.0,73,0.00,,,0.00,meteohub,2013-06-17 07:42:00,
2013-06-17 02:44:00,79.2,69.8,-100.00,SSE,155,3.0,9.0,73,0.00,,,0.00,meteohub,2013-06-17 07:44:00,
2013-06-17 02:45:00,79.2,70.2,-100.00,SSE,155,4.0,9.0,74,0.00,,,0.00,meteohub,2013-06-17 07:45:00,
2013-06-17 02:46:00,79.0,70.0,-100.00,SSE,155,4.0,9.0,74,0.00,,,0.00,meteohub,2013-06-17 07:46:00,
2013-06-17 02:47:00,79.0,70.0,-100.00,SSE,154,4.0,9.0,74,0.00,,,0.00,meteohub,2013-06-17 07:47:00,
2013-06-17 02:49:00,79.0,70.0,-100.00,SSE,154,2.0,9.0,74,0.00,,,0.00,meteohub,2013-06-17 07:49:00,
2013-06-17 02:50:00,79.0,70.0,-100.00,SSE,154,4.0,9.0,74,0.00,,,0.00,meteohub,2013-06-17 07:50:00,
2013-06-17 02:51:00,78.8,69.8,-100.00,SSE,154,3.0,7.0,74,0.00,,,0.00,meteohub,2013-06-17 07:51:00,
2013-06-17 02:52:00,78.8,69.8,-100.00,SSE,154,4.0,7.0,74,0.00,,,0.00,meteohub,2013-06-17 07:52:00,
2013-06-17 02:54:00,78.6,69.6,-100.00,SSE,153,5.0,7.0,74,0.00,,,0.00,meteohub,2013-06-17 07:54:00,
2013-06-17 02:55:00,78.6,70.0,-100.00,SSE,153,3.0,7.0,75,0.00,,,0.00,meteohub,2013-06-17 07:55:00,
2013-06-17 02:56:00,78.4,69.8,-100.00,SSE,153,5.0,6.0,75,0.00,,,0.00,meteohub,2013-06-17 07:56:00,
2013-06-17 02:57:00,78.4,69.8,-100.00,SSE,153,5.0,6.0,75,0.00,,,0.00,meteohub,2013-06-17 07:57:00,
2013-06-17 02:59:00,78.4,69.8,-100.00,SSE,148,6.0,6.0,75,0.00,,,0.00,meteohub,2013-06-17 07:59:00,
2013-06-17 03:01:00,78.3,69.6,-100.00,SSE,147,5.0,6.0,75,0.00,,,0.00,meteohub,2013-06-17 08:01:00,
2013-06-17 03:02:00,78.3,69.6,-100.00,SSE,147,3.0,6.0,75,0.00,,,0.00,meteohub,2013-06-17 08:02:00,
2013-06-17 03:03:00,78.3,69.6,-100.00,SE,145,6.0,6.0,75,0.00,,,0.00,meteohub,2013-06-17 08:03:00,
2013-06-17 03:04:00,78.1,69.4,-100.00,SE,145,5.0,6.0,75,0.00,,,0.00,meteohub,2013-06-17 08:04:00,
2013-06-17 03:06:00,78.1,70.0,-100.00,SE,142,5.0,9.0,76,0.00,,,0.00,meteohub,2013-06-17 08:06:00,
2013-06-17 03:07:00,78.1,70.0,-100.00,SE,142,6.0,9.0,76,0.00,,,0.00,meteohub,2013-06-17 08:07:00,
2013-06-17 03:09:00,78.1,70.0,-100.00,SE,142,4.0,9.0,76,0.00,,,0.00,meteohub,2013-06-17 08:09:00,
2013-06-17 03:11:00,78.1,70.0,-100.00,SE,137,6.0,9.0,76,0.00,,,0.00,meteohub,2013-06-17 08:11:00,
2013-06-17 03:12:00,78.1,70.0,-100.00,SE,137,6.0,9.0,76,0.00,,,0.00,meteohub,2013-06-17 08:12:00,
2013-06-17 03:13:00,78.1,70.0,-100.00,SE,137,6.0,9.0,76,0.00,,,0.00,meteohub,2013-06-17 08:13:00,
2013-06-17 03:14:00,78.1,70.0,-100.00,SE,137,5.0,9.0,76,0.00,,,0.00,meteohub,2013-06-17 08:14:00,
2013-06-17 03:17:00,78.1,70.0,-100.00,SE,137,4.0,9.0,76,0.00,,,0.00,meteohub,2013-06-17 08:17:00,
2013-06-17 03:18:00,78.1,70.0,-100.00,SE,137,3.0,9.0,76,0.00,,,0.00,meteohub,2013-06-17 08:18:00,
2013-06-17 03:19:00,77.9,69.8,-100.00,SE,137,6.0,9.0,76,0.00,,,0.00,meteohub,2013-06-17 08:19:00,
2013-06-17 03:22:00,77.9,69.8,-100.00,SE,137,5.0,9.0,76,0.00,,,0.00,meteohub,2013-06-17 08:22:00,
2013-06-17 03:23:00,77.9,70.2,-100.00,SE,138,6.0,9.0,77,0.00,,,0.00,meteohub,2013-06-17 08:23:00,
2013-06-17 03:24:00,78.1,70.0,-100.00,SE,142,4.0,9.0,76,0.00,,,0.00,meteohub,2013-06-17 08:24:00,
2013-06-17 03:27:00,78.1,70.3,-100.00,SSE,150,4.0,9.0,77,0.00,,,0.00,meteohub,2013-06-17 08:27:00,
2013-06-17 03:28:00,78.1,70.3,-100.00,SSE,152,6.0,9.0,77,0.00,,,0.00,meteohub,2013-06-17 08:28:00,
2013-06-17 03:29:00,78.1,70.3,-100.00,SSE,152,4.0,9.0,77,0.00,,,0.00,meteohub,2013-06-17 08:29:00,
2013-06-17 03:30:00,78.1,70.3,-100.00,SSE,154,8.0,9.0,77,0.00,,,0.00,meteohub,2013-06-17 08:30:00,
2013-06-17 03:32:00,78.1,70.3,-100.00,SSE,155,4.0,11.0,77,0.00,,,0.00,meteohub,2013-06-17 08:32:00,
2013-06-17 03:33:00,78.1,70.3,-100.00,SSE,153,4.0,11.0,77,0.00,,,0.00,meteohub,2013-06-17 08:33:00,
2013-06-17 03:34:00,78.1,70.3,-100.00,SSE,153,6.0,11.0,77,0.00,,,0.00,meteohub,2013-06-17 08:34:00,
2013-06-17 03:35:00,78.3,70.5,-100.00,SSE,150,5.0,11.0,77,0.00,,,0.00,meteohub,2013-06-17 08:35:00,
2013-06-17 03:38:00,78.3,70.5,-100.00,SSE,156,9.0,11.0,77,0.00,,,0.00,meteohub,2013-06-17 08:38:00,
2013-06-17 03:39:00,78.3,70.5,-100.00,SSE,157,3.0,11.0,77,0.00,,,0.00,meteohub,2013-06-17 08:39:00,
2013-06-17 03:40:00,78.4,70.7,-100.00,SSE,155,5.0,11.0,77,0.00,,,0.00,meteohub,2013-06-17 08:40:00,
2013-06-17 03:44:00,78.4,70.7,-100.00,SSE,154,7.0,11.0,77,0.00,,,0.00,meteohub,2013-06-17 08:44:00,
2013-06-17 03:45:00,78.4,70.7,-100.00,SSE,153,7.0,14.0,77,0.00,,,0.00,meteohub,2013-06-17 08:45:00,
2013-06-17 03:46:00,78.4,70.7,-100.00,SSE,153,5.0,14.0,77,0.00,,,0.00,meteohub,2013-06-17 08:46:00,
2013-06-17 03:49:00,78.4,70.7,-100.00,SSE,150,6.0,14.0,77,0.00,,,0.00,meteohub,2013-06-17 08:49:00,
2013-06-17 03:50:00,78.3,70.5,-100.00,SSE,150,7.0,14.0,77,0.00,,,0.00,meteohub,2013-06-17 08:50:00,
2013-06-17 03:51:00,78.3,70.5,-100.00,SSE,150,5.0,14.0,77,0.00,,,0.00,meteohub,2013-06-17 08:51:00,
2013-06-17 03:54:00,78.3,70.5,-100.00,SSE,153,5.0,14.0,77,0.00,,,0.00,meteohub,2013-06-17 08:54:00,
2013-06-17 03:55:00,78.3,70.5,-100.00,SSE,153,4.0,14.0,77,0.00,,,0.00,meteohub,2013-06-17 08:55:00,
2013-06-17 03:56:00,78.3,70.5,-100.00,SSE,155,3.0,14.0,77,0.00,,,0.00,meteohub,2013-06-17 08:56:00,
2013-06-17 03:57:00,78.3,70.9,-100.00,SSE,154,3.0,14.0,78,0.00,,,0.00,meteohub,2013-06-17 08:57:00,
2013-06-17 03:59:00,78.3,70.9,-100.00,SSE,153,3.0,14.0,78,0.00,,,0.00,meteohub,2013-06-17 08:59:00,
2013-06-17 04:00:00,78.3,70.9,-100.00,SSE,153,2.0,14.0,78,0.00,,,0.00,meteohub,2013-06-17 09:00:00,
2013-06-17 04:01:00,78.3,70.9,-100.00,SSE,153,4.0,12.0,78,0.00,,,0.00,meteohub,2013-06-17 09:01:00,
2013-06-17 04:02:00,78.3,70.9,-100.00,SSE,153,3.0,12.0,78,0.00,,,0.00,meteohub,2013-06-17 09:02:00,
2013-06-17 04:05:00,78.3,70.9,-100.00,SSE,153,5.0,12.0,78,0.00,,,0.00,meteohub,2013-06-17 09:05:00,
2013-06-17 04:06:00,78.3,70.9,-100.00,SSE,153,3.0,9.0,78,0.00,,,0.00,meteohub,2013-06-17 09:06:00,
2013-06-17 04:08:00,78.3,70.9,-100.00,SSE,153,3.0,9.0,78,0.00,,,0.00,meteohub,2013-06-17 09:08:00,
2013-06-17 04:10:00,78.1,70.7,-100.00,SSE,153,2.0,9.0,78,0.00,,,0.00,meteohub,2013-06-17 09:10:00,
2013-06-17 04:11:00,78.1,70.7,-100.00,SSE,153,5.0,6.0,78,0.00,,,0.00,meteohub,2013-06-17 09:11:00,
2013-06-17 04:13:00,78.1,70.7,-100.00,SSE,153,1.0,6.0,78,0.00,,,0.00,meteohub,2013-06-17 09:13:00,
2013-06-17 04:15:00,78.1,70.7,-100.00,SSE,153,3.0,6.0,78,0.00,,,0.00,meteohub,2013-06-17 09:15:00,
2013-06-17 04:16:00,78.1,70.7,-100.00,SSE,153,2.0,6.0,78,0.00,,,0.00,meteohub,2013-06-17 09:16:00,
2013-06-17 04:17:00,78.1,70.7,-100.00,SSE,153,2.0,6.0,78,0.00,,,0.00,meteohub,2013-06-17 09:17:00,
2013-06-17 04:18:00,78.1,70.7,-100.00,SSE,153,3.0,6.0,78,0.00,,,0.00,meteohub,2013-06-17 09:18:00,
2013-06-17 04:20:00,77.9,70.5,-100.00,SSE,153,2.0,6.0,78,0.00,,,0.00,meteohub,2013-06-17 09:20:00,
2013-06-17 04:22:00,77.9,70.9,-100.00,SSE,153,2.0,6.0,79,0.00,,,0.00,meteohub,2013-06-17 09:22:00,
2013-06-17 04:23:00,77.9,70.9,-100.00,SSE,153,1.0,6.0,79,0.00,,,0.00,meteohub,2013-06-17 09:23:00,
2013-06-17 04:26:00,77.9,70.9,-100.00,SSE,153,4.0,6.0,79,0.00,,,0.00,meteohub,2013-06-17 09:26:00,
2013-06-17 04:27:00,77.9,70.9,-100.00,SSE,153,3.0,6.0,79,0.00,,,0.00,meteohub,2013-06-17 09:27:00,
2013-06-17 04:29:00,77.9,70.9,-100.00,SSE,153,3.0,6.0,79,0.00,,,0.00,meteohub,2013-06-17 09:29:00,
2013-06-17 04:31:00,77.9,70.9,-100.00,SSE,153,3.0,5.0,79,0.00,,,0.00,meteohub,2013-06-17 09:31:00,
2013-06-17 04:32:00,77.9,70.9,-100.00,SSE,153,3.0,5.0,79,0.00,,,0.00,meteohub,2013-06-17 09:32:00,
2013-06-17 04:34:00,77.9,70.9,-100.00,SSE,153,2.0,5.0,79,0.00,,,0.00,meteohub,2013-06-17 09:34:00,
2013-06-17 04:37:00,77.9,70.9,-100.00,SSE,153,1.0,6.0,79,0.00,,,0.00,meteohub,2013-06-17 09:37:00,
2013-06-17 04:39:00,77.9,70.9,-100.00,SSE,153,4.0,6.0,79,0.00,,,0.00,meteohub,2013-06-17 09:39:00,
2013-06-17 04:40:00,77.9,70.9,-100.00,SSE,153,2.0,6.0,79,0.00,,,0.00,meteohub,2013-06-17 09:40:00,
2013-06-17 04:42:00,77.9,70.9,-100.00,SSE,153,3.0,6.0,79,0.00,,,0.00,meteohub,2013-06-17 09:42:00,
2013-06-17 04:44:00,77.9,70.9,-100.00,SSE,153,2.0,6.0,79,0.00,,,0.00,meteohub,2013-06-17 09:44:00,
2013-06-17 04:45:00,77.9,70.9,-100.00,SSE,153,3.0,6.0,79,0.00,,,0.00,meteohub,2013-06-17 09:45:00,
2013-06-17 04:47:00,77.9,70.9,-100.00,SSE,153,2.0,5.0,79,0.00,,,0.00,meteohub,2013-06-17 09:47:00,
2013-06-17 04:48:00,77.9,70.9,-100.00,SSE,153,5.0,5.0,79,0.00,,,0.00,meteohub,2013-06-17 09:48:00,
2013-06-17 04:49:00,77.9,70.9,-100.00,SSE,155,3.0,5.0,79,0.00,,,0.00,meteohub,2013-06-17 09:49:00,
2013-06-17 04:50:00,77.9,70.9,-100.00,SSE,156,5.0,5.0,79,0.00,,,0.00,meteohub,2013-06-17 09:50:00,
2013-06-17 04:51:00,77.9,70.9,-100.00,SSE,157,4.0,5.0,79,0.00,,,0.00,meteohub,2013-06-17 09:51:00,
2013-06-17 04:53:00,77.9,70.9,-100.00,SSE,159,6.0,7.0,79,0.00,,,0.00,meteohub,2013-06-17 09:53:00,
2013-06-17 04:54:00,77.9,70.9,-100.00,SSE,161,3.0,7.0,79,0.00,,,0.00,meteohub,2013-06-17 09:54:00,
2013-06-17 04:55:00,77.9,70.9,-100.00,SSE,161,3.0,7.0,79,0.00,,,0.00,meteohub,2013-06-17 09:55:00,
2013-06-17 04:57:00,77.9,70.9,-100.00,SSE,162,3.0,7.0,79,0.00,,,0.00,meteohub,2013-06-17 09:57:00,
2013-06-17 04:59:00,77.9,70.9,-100.00,SSE,162,3.0,7.0,79,0.00,,,0.00,meteohub,2013-06-17 09:59:00,
2013-06-17 05:00:00,77.9,70.9,-100.00,SSE,162,4.0,7.0,79,0.00,,,0.00,meteohub,2013-06-17 10:00:00,
2013-06-17 05:02:00,77.9,70.9,-100.00,SSE,163,2.0,7.0,79,0.00,,,0.00,meteohub,2013-06-17 10:02:00,
2013-06-17 05:04:00,77.9,70.9,-100.00,SSE,163,3.0,7.0,79,0.00,,,0.00,meteohub,2013-06-17 10:04:00,
2013-06-17 05:06:00,77.7,70.7,-100.00,SSE,163,3.0,7.0,79,0.00,,,0.00,meteohub,2013-06-17 10:06:00,
2013-06-17 05:07:00,77.7,70.7,-100.00,SSE,165,7.0,7.0,79,0.00,,,0.00,meteohub,2013-06-17 10:07:00,
2013-06-17 05:09:00,77.7,70.7,-100.00,SSE,168,6.0,7.0,79,0.00,,,0.00,meteohub,2013-06-17 10:09:00,
2013-06-17 05:11:00,77.7,70.7,-100.00,SSE,168,3.0,7.0,79,0.00,,,0.00,meteohub,2013-06-17 10:11:00,
2013-06-17 05:12:00,77.7,70.7,-100.00,South,171,3.0,9.0,79,0.00,,,0.00,meteohub,2013-06-17 10:12:00,
2013-06-17 05:14:00,77.7,70.7,-100.00,South,171,4.0,9.0,79,0.00,,,0.00,meteohub,2013-06-17 10:14:00,
2013-06-17 05:16:00,77.7,70.7,-100.00,South,173,1.0,9.0,79,0.00,,,0.00,meteohub,2013-06-17 10:16:00,
2013-06-17 05:17:00,77.7,70.7,-100.00,South,173,2.0,9.0,79,0.00,,,0.00,meteohub,2013-06-17 10:17:00,
2013-06-17 05:19:00,77.7,70.7,-100.00,South,182,6.0,9.0,79,0.00,,,0.00,meteohub,2013-06-17 10:19:00,
2013-06-17 05:21:00,77.7,70.7,-100.00,South,182,3.0,9.0,79,0.00,,,0.00,meteohub,2013-06-17 10:21:00,
2013-06-17 05:22:00,77.9,70.9,-100.00,South,183,4.0,9.0,79,0.00,,,0.00,meteohub,2013-06-17 10:22:00,
2013-06-17 05:24:00,77.9,70.5,-100.00,South,184,5.0,9.0,78,0.00,,,0.00,meteohub,2013-06-17 10:24:00,
2013-06-17 05:25:00,77.9,70.5,-100.00,South,190,5.0,9.0,78,0.00,,,0.00,meteohub,2013-06-17 10:25:00,
2013-06-17 05:26:00,77.9,70.5,-100.00,South,186,6.0,9.0,78,0.00,,,0.00,meteohub,2013-06-17 10:26:00,
2013-06-17 05:27:00,77.9,70.5,-100.00,South,186,5.0,9.0,78,0.00,,,0.00,meteohub,2013-06-17 10:27:00,
2013-06-17 05:30:00,77.9,70.5,-100.00,South,187,4.0,9.0,78,0.00,,,0.00,meteohub,2013-06-17 10:30:00,
2013-06-17 05:31:00,77.9,70.5,-100.00,South,187,5.0,9.0,78,0.00,,,0.00,meteohub,2013-06-17 10:31:00,
2013-06-17 05:33:00,77.9,70.5,-100.00,South,187,1.0,10.0,78,0.00,,,0.00,meteohub,2013-06-17 10:33:00,
2013-06-17 05:35:00,77.9,70.5,-100.00,South,188,6.0,10.0,78,0.00,,,0.00,meteohub,2013-06-17 10:35:00,
2013-06-17 05:36:00,77.9,70.5,-100.00,South,188,5.0,10.0,78,0.00,,,0.00,meteohub,2013-06-17 10:36:00,
2013-06-17 05:38:00,77.9,70.5,-100.00,South,189,3.0,11.0,78,0.00,,,0.00,meteohub,2013-06-17 10:38:00,
2013-06-17 05:41:00,77.9,70.5,-100.00,South,190,3.0,11.0,78,0.00,,,0.00,meteohub,2013-06-17 10:41:00,
2013-06-17 05:42:00,77.9,70.5,-100.00,South,190,3.0,11.0,78,0.00,,,0.00,meteohub,2013-06-17 10:42:00,
2013-06-17 05:43:00,77.9,70.5,-100.00,South,191,4.0,11.0,78,0.00,,,0.00,meteohub,2013-06-17 10:43:00,
2013-06-17 05:46:00,77.9,70.5,-100.00,South,190,5.0,11.0,78,0.00,,,0.00,meteohub,2013-06-17 10:46:00,
2013-06-17 05:47:00,77.9,70.5,-100.00,South,191,7.0,11.0,78,0.00,,,0.00,meteohub,2013-06-17 10:47:00,
2013-06-17 05:48:00,77.7,70.3,-100.00,South,190,6.0,11.0,78,0.00,,,0.00,meteohub,2013-06-17 10:48:00,
2013-06-17 05:51:00,77.7,70.3,-100.00,South,191,5.0,11.0,78,0.00,,,0.00,meteohub,2013-06-17 10:51:00,
2013-06-17 05:52:00,77.7,70.3,-100.00,South,191,8.0,11.0,78,0.00,,,0.00,meteohub,2013-06-17 10:52:00,
2013-06-17 05:53:00,77.7,70.7,-100.00,South,191,4.0,11.0,79,0.00,,,0.00,meteohub,2013-06-17 10:53:00,
2013-06-17 05:54:00,77.7,70.7,-100.00,SSW,192,5.0,11.0,79,0.00,,,0.00,meteohub,2013-06-17 10:54:00,
2013-06-17 05:56:00,77.7,70.7,-100.00,SSW,193,7.0,11.0,79,0.00,,,0.00,meteohub,2013-06-17 10:56:00,
2013-06-17 05:57:00,77.7,70.7,-100.00,SSW,197,6.0,11.0,79,0.00,,,0.00,meteohub,2013-06-17 10:57:00,
2013-06-17 05:58:00,77.7,70.7,-100.00,SSW,200,4.0,11.0,79,0.00,,,0.00,meteohub,2013-06-17 10:58:00,
2013-06-17 05:59:00,77.7,70.7,-100.00,SSW,201,10.0,11.0,79,0.00,,,0.00,meteohub,2013-06-17 10:59:00,
2013-06-17 06:02:00,77.7,70.7,-100.00,SSW,201,9.0,12.0,79,0.00,,,0.00,meteohub,2013-06-17 11:02:00,
2013-06-17 06:03:00,77.7,70.7,-100.00,SSW,204,10.0,12.0,79,0.00,,,0.00,meteohub,2013-06-17 11:03:00,
2013-06-17 06:05:00,77.5,70.5,-100.00,SSW,201,9.0,12.0,79,0.00,,,0.00,meteohub,2013-06-17 11:05:00,
2013-06-17 06:07:00,77.7,70.7,-100.00,SSW,212,11.0,12.0,79,0.00,,,0.00,meteohub,2013-06-17 11:07:00,
2013-06-17 06:09:00,77.7,70.7,-100.00,SSW,212,10.0,12.0,79,0.00,,,0.00,meteohub,2013-06-17 11:09:00,
2013-06-17 06:11:00,77.7,70.7,-100.00,SSW,204,6.0,12.0,79,0.00,,,0.00,meteohub,2013-06-17 11:11:00,
2013-06-17 06:13:00,77.7,70.7,-100.00,SSW,205,11.0,16.0,79,0.00,,,0.00,meteohub,2013-06-17 11:13:00,
2013-06-17 06:14:00,77.7,70.7,-100.00,SW,220,11.0,16.0,79,0.00,,,0.00,meteohub,2013-06-17 11:14:00,
2013-06-17 06:16:00,77.7,70.7,-100.00,SSW,211,11.0,16.0,79,0.00,,,0.00,meteohub,2013-06-17 11:16:00,
2013-06-17 06:18:00,77.7,70.7,-100.00,SSW,210,12.0,16.0,79,0.00,,,0.00,meteohub,2013-06-17 11:18:00,
2013-06-17 06:19:00,77.7,70.7,-100.00,SSW,211,11.0,16.0,79,0.00,,,0.00,meteohub,2013-06-17 11:19:00,
2013-06-17 06:20:00,77.7,70.7,-100.00,SSW,208,7.0,16.0,79,0.00,,,0.00,meteohub,2013-06-17 11:20:00,
2013-06-17 06:21:00,77.7,70.7,-100.00,SSW,196,6.0,16.0,79,0.00,,,0.00,meteohub,2013-06-17 11:21:00,
2013-06-17 06:23:00,77.7,70.7,-100.00,SSW,210,9.0,15.0,79,0.00,,,0.00,meteohub,2013-06-17 11:23:00,
2013-06-17 06:24:00,77.7,70.7,-100.00,SSW,203,13.0,15.0,79,0.00,,,0.00,meteohub,2013-06-17 11:24:00,
2013-06-17 06:25:00,77.7,70.7,-100.00,SW,215,12.0,15.0,79,0.00,,,0.00,meteohub,2013-06-17 11:25:00,
2013-06-17 06:26:00,77.7,70.7,-100.00,SSW,213,10.0,15.0,79,0.00,,,0.00,meteohub,2013-06-17 11:26:00,
2013-06-17 06:29:00,77.7,70.7,-100.00,SSW,206,7.0,15.0,79,0.00,,,0.00,meteohub,2013-06-17 11:29:00,
2013-06-17 06:31:00,77.7,70.7,-100.00,SW,214,8.0,15.0,79,0.00,,,0.00,meteohub,2013-06-17 11:31:00,
2013-06-17 06:34:00,77.7,70.7,-100.00,SW,223,5.0,14.0,79,0.00,,,0.00,meteohub,2013-06-17 11:34:00,
2013-06-17 06:35:00,77.7,70.7,-100.00,SSW,207,9.0,14.0,79,0.00,,,0.00,meteohub,2013-06-17 11:35:00,
2013-06-17 06:36:00,77.7,70.3,-100.00,SSW,211,8.0,14.0,78,0.00,,,0.00,meteohub,2013-06-17 11:36:00,
2013-06-17 06:40:00,77.9,70.5,-100.00,SW,215,13.0,17.0,78,0.00,,,0.00,meteohub,2013-06-17 11:40:00,
2013-06-17 06:41:00,77.9,70.5,-100.00,SSW,210,12.0,17.0,78,0.00,,,0.00,meteohub,2013-06-17 11:41:00,
2013-06-17 06:45:00,77.9,70.5,-100.00,SW,229,7.0,17.0,78,0.00,,,0.00,meteohub,2013-06-17 11:45:00,
2013-06-17 06:46:00,78.1,70.7,-100.00,SSW,209,9.0,17.0,78,0.00,,,0.00,meteohub,2013-06-17 11:46:00,
2013-06-17 06:47:00,78.1,70.7,-100.00,SW,217,5.0,17.0,78,0.00,,,0.00,meteohub,2013-06-17 11:47:00,
2013-06-17 06:50:00,78.1,70.7,-100.00,SW,228,4.0,17.0,78,0.00,,,0.00,meteohub,2013-06-17 11:50:00,
2013-06-17 06:51:00,78.1,70.7,-100.00,SW,227,5.0,17.0,78,0.00,,,0.00,meteohub,2013-06-17 11:51:00,
2013-06-17 06:52:00,78.1,70.7,-100.00,SW,230,4.0,17.0,78,0.00,,,0.00,meteohub,2013-06-17 11:52:00,
2013-06-17 06:55:00,78.1,70.7,-100.00,SW,223,7.0,17.0,78,0.00,,,0.00,meteohub,2013-06-17 11:55:00,
2013-06-17 06:56:00,78.1,70.7,-100.00,SW,227,4.0,17.0,78,0.00,,,0.00,meteohub,2013-06-17 11:56:00,
2013-06-17 06:57:00,78.1,70.7,-100.00,WSW,238,5.0,17.0,78,0.00,,,0.00,meteohub,2013-06-17 11:57:00,
2013-06-17 06:58:00,78.1,70.7,-100.00,SW,230,3.0,17.0,78,0.00,,,0.00,meteohub,2013-06-17 11:58:00,
2013-06-17 07:00:00,78.1,70.7,-100.00,SW,234,9.0,17.0,78,0.00,,,0.00,meteohub,2013-06-17 12:00:00,
2013-06-17 07:01:00,78.1,70.7,-100.00,SW,225,7.0,12.0,78,0.00,,,0.00,meteohub,2013-06-17 12:01:00,
2013-06-17 07:02:00,78.1,70.7,-100.00,SW,225,10.0,12.0,78,0.00,,,0.00,meteohub,2013-06-17 12:02:00,
2013-06-17 07:03:00,78.1,70.7,-100.00,WSW,243,7.0,12.0,78,0.00,,,0.00,meteohub,2013-06-17 12:03:00,
2013-06-17 07:04:00,78.1,70.7,-100.00,WSW,237,10.0,12.0,78,0.00,,,0.00,meteohub,2013-06-17 12:04:00,
2013-06-17 07:06:00,78.1,70.7,-100.00,SW,227,3.0,14.0,78,0.00,,,0.00,meteohub,2013-06-17 12:06:00,
2013-06-17 07:07:00,78.3,71.2,-100.00,SW,228,9.0,14.0,79,0.00,,,0.00,meteohub,2013-06-17 12:07:00,
2013-06-17 07:08:00,78.3,71.2,-100.00,WSW,240,6.0,14.0,79,0.00,,,0.00,meteohub,2013-06-17 12:08:00,
2013-06-17 07:09:00,78.3,71.2,-100.00,WSW,245,5.0,14.0,79,0.00,,,0.00,meteohub,2013-06-17 12:09:00,
2013-06-17 07:11:00,78.3,71.2,-100.00,SW,224,10.0,15.0,79,0.00,,,0.00,meteohub,2013-06-17 12:11:00,
2013-06-17 07:12:00,78.3,71.2,-100.00,SW,222,6.0,15.0,79,0.00,,,0.00,meteohub,2013-06-17 12:12:00,
2013-06-17 07:13:00,78.3,71.2,-100.00,SW,221,5.0,15.0,79,0.00,,,0.00,meteohub,2013-06-17 12:13:00,
2013-06-17 07:15:00,78.3,71.2,-100.00,SSW,208,10.0,15.0,79,0.00,,,0.00,meteohub,2013-06-17 12:15:00,
2013-06-17 07:16:00,78.3,71.2,-100.00,WSW,243,6.0,15.0,79,0.00,,,0.00,meteohub,2013-06-17 12:16:00,
2013-06-17 07:17:00,78.3,71.2,-100.00,SW,233,5.0,15.0,79,0.00,,,0.00,meteohub,2013-06-17 12:17:00,
2013-06-17 07:18:00,78.3,71.2,-100.00,SW,223,10.0,15.0,79,0.00,,,0.00,meteohub,2013-06-17 12:18:00,
2013-06-17 07:20:00,78.3,71.2,-100.00,SW,223,6.0,15.0,79,0.00,,,0.00,meteohub,2013-06-17 12:20:00,
2013-06-17 07:22:00,78.3,71.2,-100.00,SW,224,9.0,16.0,79,0.00,,,0.00,meteohub,2013-06-17 12:22:00,
2013-06-17 07:23:00,78.3,71.2,-100.00,SW,225,9.0,16.0,79,0.00,,,0.00,meteohub,2013-06-17 12:23:00,
2013-06-17 07:25:00,78.3,71.2,-100.00,SW,228,5.0,16.0,79,0.00,,,0.00,meteohub,2013-06-17 12:25:00,
2013-06-17 07:27:00,78.3,71.2,-100.00,SW,234,6.0,16.0,79,0.00,,,0.00,meteohub,2013-06-17 12:27:00,
2013-06-17 07:28:00,78.3,71.2,-100.00,SW,229,5.0,16.0,79,0.00,,,0.00,meteohub,2013-06-17 12:28:00,
2013-06-17 07:29:00,78.3,71.2,-100.00,WSW,238,12.0,16.0,79,0.00,,,0.00,meteohub,2013-06-17 12:29:00,
2013-06-17 07:31:00,78.3,71.2,-100.00,SW,217,3.0,16.0,79,0.00,,,0.00,meteohub,2013-06-17 12:31:00,
2013-06-17 07:32:00,78.3,71.2,-100.00,SW,236,6.0,16.0,79,0.00,,,0.00,meteohub,2013-06-17 12:32:00,
2013-06-17 07:34:00,78.3,71.2,-100.00,SW,223,5.0,16.0,79,0.00,,,0.00,meteohub,2013-06-17 12:34:00,
2013-06-17 07:36:00,78.3,71.2,-100.00,WSW,252,3.0,16.0,79,0.00,,,0.00,meteohub,2013-06-17 12:36:00,
2013-06-17 07:37:00,78.3,71.6,-100.00,WSW,246,2.0,16.0,80,0.00,,,0.00,meteohub,2013-06-17 12:37:00,
2013-06-17 07:39:00,78.3,71.6,-100.00,WSW,240,3.0,16.0,80,0.00,,,0.00,meteohub,2013-06-17 12:39:00,
2013-06-17 07:40:00,78.3,71.6,-100.00,WSW,239,1.0,16.0,80,0.00,,,0.00,meteohub,2013-06-17 12:40:00,
2013-06-17 07:42:00,78.3,71.6,-100.00,WSW,248,5.0,16.0,80,0.00,,,0.00,meteohub,2013-06-17 12:42:00,
2013-06-17 07:43:00,78.3,71.6,-100.00,WSW,248,2.0,16.0,80,0.00,,,0.00,meteohub,2013-06-17 12:43:00,
2013-06-17 07:44:00,78.3,71.6,-100.00,WSW,249,3.0,16.0,80,0.00,,,0.00,meteohub,2013-06-17 12:44:00,
2013-06-17 07:45:00,78.3,71.6,-100.00,WSW,250,2.0,16.0,80,0.00,,,0.00,meteohub,2013-06-17 12:45:00,
2013-06-17 07:47:00,78.3,71.6,-100.00,WSW,258,1.0,12.0,80,0.00,,,0.00,meteohub,2013-06-17 12:47:00,
2013-06-17 07:48:00,78.3,71.6,-100.00,WSW,257,4.0,12.0,80,0.00,,,0.00,meteohub,2013-06-17 12:48:00,
2013-06-17 07:49:00,78.3,71.6,-100.00,WSW,257,4.0,12.0,80,0.00,,,0.00,meteohub,2013-06-17 12:49:00,
2013-06-17 07:50:00,78.3,71.6,-100.00,WSW,256,5.0,12.0,80,0.00,,,0.00,meteohub,2013-06-17 12:50:00,
2013-06-17 07:52:00,78.3,71.6,-100.00,WSW,250,6.0,9.0,80,0.00,,,0.00,meteohub,2013-06-17 12:52:00,
2013-06-17 07:53:00,78.3,71.6,-100.00,WSW,246,1.0,9.0,80,0.00,,,0.00,meteohub,2013-06-17 12:53:00,
2013-06-17 07:55:00,78.3,71.6,-100.00,West,259,4.0,9.0,80,0.00,,,0.00,meteohub,2013-06-17 12:55:00,
2013-06-17 07:57:00,78.3,71.6,-100.00,WSW,250,5.0,10.0,80,0.00,,,0.00,meteohub,2013-06-17 12:57:00,
2013-06-17 07:58:00,78.3,71.6,-100.00,WSW,254,0.0,10.0,80,0.00,,,0.00,meteohub,2013-06-17 12:58:00,
2013-06-17 08:00:00,78.3,71.6,-100.00,WSW,248,4.0,10.0,80,0.00,,,0.00,meteohub,2013-06-17 13:00:00,
2013-06-17 08:02:00,78.3,71.6,-100.00,WSW,242,2.0,10.0,80,0.00,,,0.00,meteohub,2013-06-17 13:02:00,
2013-06-17 08:04:00,78.3,71.6,-100.00,WSW,239,0.0,10.0,80,0.00,,,0.00,meteohub,2013-06-17 13:04:00,
2013-06-17 08:05:00,78.3,71.6,-100.00,WSW,238,3.0,10.0,80,0.00,,,0.00,meteohub,2013-06-17 13:05:00,
2013-06-17 08:06:00,78.3,71.6,-100.00,WSW,240,2.0,10.0,80,0.00,,,0.00,meteohub,2013-06-17 13:06:00,
2013-06-17 08:08:00,78.1,71.1,-100.00,WSW,242,19.0,19.0,79,0.00,,,0.00,meteohub,2013-06-17 13:08:00,
2013-06-17 08:10:00,77.2,65.8,-100.00,NW,315,19.0,19.0,68,0.00,,,0.00,meteohub,2013-06-17 13:10:00,
2013-06-17 08:11:00,77.0,65.7,-100.00,WNW,298,19.0,33.0,68,0.00,,,0.00,meteohub,2013-06-17 13:11:00,
2013-06-17 08:12:00,76.8,65.5,-100.00,WNW,301,20.0,33.0,68,0.00,,,0.00,meteohub,2013-06-17 13:12:00,
2013-06-17 08:13:00,76.8,65.5,-100.00,NW,315,15.0,33.0,68,0.00,,,0.00,meteohub,2013-06-17 13:13:00,
2013-06-17 08:15:00,76.5,64.8,-100.00,WNW,303,11.0,33.0,67,0.00,,,0.00,meteohub,2013-06-17 13:15:00,
2013-06-17 08:16:00,76.3,64.6,-100.00,WNW,302,16.0,33.0,67,0.00,,,0.00,meteohub,2013-06-17 13:16:00,
2013-06-17 08:17:00,76.3,64.6,-100.00,WNW,286,11.0,33.0,67,0.00,,,0.00,meteohub,2013-06-17 13:17:00,
2013-06-17 08:18:00,76.1,64.8,-100.00,NW,319,15.0,33.0,68,0.00,,,0.00,meteohub,2013-06-17 13:18:00,
2013-06-17 08:21:00,75.7,64.8,-100.00,WNW,301,20.0,33.0,69,0.00,,,0.00,meteohub,2013-06-17 13:21:00,
2013-06-17 08:22:00,75.6,64.8,-100.00,NNW,330,17.0,33.0,69,0.00,,,0.00,meteohub,2013-06-17 13:22:00,
2013-06-17 08:23:00,75.4,64.6,-100.00,NW,323,13.0,33.0,69,0.00,,,0.00,meteohub,2013-06-17 13:23:00,
2013-06-17 08:26:00,75.0,65.3,-100.00,NW,320,18.0,27.0,72,0.00,,,0.00,meteohub,2013-06-17 13:26:00,
2013-06-17 08:27:00,74.8,66.0,-100.00,NW,315,14.0,27.0,74,0.00,,,0.00,meteohub,2013-06-17 13:27:00,
2013-06-17 08:28:00,74.7,66.6,-100.00,NNW,346,13.0,27.0,76,0.00,,,0.00,meteohub,2013-06-17 13:28:00,
2013-06-17 08:31:00,73.8,66.4,-100.00,North,355,6.0,27.0,78,0.06,,,0.06,meteohub,2013-06-17 13:31:00,
2013-06-17 08:32:00,73.2,66.0,-100.00,North,0,14.0,27.0,78,0.06,,,0.06,meteohub,2013-06-17 13:32:00,
2013-06-17 08:33:00,72.7,66.2,-100.00,NNE,24,10.0,27.0,80,0.06,,,0.06,meteohub,2013-06-17 13:33:00,
2013-06-17 08:36:00,71.4,66.0,-100.00,NNE,14,4.0,23.0,83,0.26,,,0.26,meteohub,2013-06-17 13:36:00,
2013-06-17 08:37:00,71.2,65.8,-100.00,North,355,10.0,23.0,83,0.26,,,0.26,meteohub,2013-06-17 13:37:00,
2013-06-17 08:39:00,70.9,65.8,-100.00,North,0,2.0,23.0,84,0.26,,,0.26,meteohub,2013-06-17 13:39:00,
2013-06-17 08:42:00,70.5,65.8,-100.00,NNW,335,8.0,21.0,85,0.30,,,0.30,meteohub,2013-06-17 13:42:00,
2013-06-17 08:44:00,70.3,65.7,-100.00,North,5,5.0,21.0,85,0.30,,,0.30,meteohub,2013-06-17 13:44:00,
2013-06-17 08:47:00,70.3,66.0,-100.00,North,0,5.0,18.0,86,0.31,,,0.31,meteohub,2013-06-17 13:47:00,
2013-06-17 08:48:00,70.3,66.2,-100.00,North,5,2.0,18.0,87,0.31,,,0.31,meteohub,2013-06-17 13:48:00,
2013-06-17 08:49:00,70.2,66.0,-100.00,North,5,4.0,18.0,87,0.31,,,0.31,meteohub,2013-06-17 13:49:00,
2013-06-17 08:50:00,70.2,66.0,-100.00,North,5,1.0,18.0,87,0.31,,,0.31,meteohub,2013-06-17 13:50:00,
2013-06-17 08:52:00,70.0,66.0,-100.00,NNE,24,2.0,18.0,87,0.35,,,0.35,meteohub,2013-06-17 13:52:00,
2013-06-17 08:53:00,69.8,66.0,-100.00,NNE,26,2.0,18.0,88,0.35,,,0.35,meteohub,2013-06-17 13:53:00,
2013-06-17 08:54:00,69.8,66.0,-100.00,NNE,26,2.0,18.0,88,0.35,,,0.35,meteohub,2013-06-17 13:54:00,
2013-06-17 08:55:00,69.6,65.8,-100.00,NNE,26,2.0,18.0,88,0.35,,,0.35,meteohub,2013-06-17 13:55:00,
2013-06-17 08:57:00,69.4,65.7,-100.00,NNE,26,1.0,18.0,88,0.37,,,0.37,meteohub,2013-06-17 13:57:00,
2013-06-17 08:58:00,69.4,65.7,-100.00,NNE,28,3.0,18.0,88,0.37,,,0.37,meteohub,2013-06-17 13:58:00,
2013-06-17 08:59:00,69.4,66.0,-100.00,NNE,28,1.0,18.0,89,0.37,,,0.37,meteohub,2013-06-17 13:59:00,
2013-06-17 09:00:00,69.4,66.0,-100.00,NNE,28,1.0,18.0,89,0.37,,,0.38,meteohub,2013-06-17 14:00:00,
2013-06-17 09:02:00,69.4,66.0,-100.00,NNE,28,0.0,9.0,89,0.38,,,0.38,meteohub,2013-06-17 14:02:00,
2013-06-17 09:04:00,69.3,65.8,-100.00,NNE,28,0.0,9.0,89,0.38,,,0.38,meteohub,2013-06-17 14:04:00,
2013-06-17 09:05:00,69.3,65.8,-100.00,NNE,28,0.0,9.0,89,0.38,,,0.38,meteohub,2013-06-17 14:05:00,
2013-06-17 09:08:00,69.3,65.8,-100.00,NNE,28,0.0,5.0,89,0.38,,,0.38,meteohub,2013-06-17 14:08:00,
2013-06-17 09:09:00,69.3,65.8,-100.00,NNE,28,0.0,5.0,89,0.38,,,0.38,meteohub,2013-06-17 14:09:00,
2013-06-17 09:10:00,69.3,65.8,-100.00,NNE,28,1.0,5.0,89,0.38,,,0.38,meteohub,2013-06-17 14:10:00,
2013-06-17 09:11:00,69.1,65.7,-100.00,NNE,28,3.0,4.0,89,0.39,,,0.38,meteohub,2013-06-17 14:11:00,
2013-06-17 09:15:00,69.1,66.0,-100.00,NNE,29,3.0,4.0,90,0.39,,,0.38,meteohub,2013-06-17 14:15:00,
2013-06-17 09:16:00,69.1,66.0,-100.00,NNE,28,1.0,5.0,90,0.39,,,0.39,meteohub,2013-06-17 14:16:00,
2013-06-17 09:20:00,69.1,66.0,-100.00,NNE,29,1.0,5.0,90,0.41,,,0.41,meteohub,2013-06-17 14:20:00,
2013-06-17 09:21:00,68.9,65.8,-100.00,NNE,29,2.0,5.0,90,0.41,,,0.41,meteohub,2013-06-17 14:21:00,
2013-06-17 09:25:00,68.9,65.8,-100.00,NNE,29,1.0,5.0,90,0.41,,,0.42,meteohub,2013-06-17 14:25:00,
2013-06-17 09:26:00,68.9,65.8,-100.00,NNE,29,1.0,5.0,90,0.41,,,0.42,meteohub,2013-06-17 14:26:00,
2013-06-17 09:27:00,68.9,65.8,-100.00,NNE,29,0.0,5.0,90,0.41,,,0.42,meteohub,2013-06-17 14:27:00,
2013-06-17 09:30:00,68.9,65.8,-100.00,NNE,29,0.0,5.0,90,0.29,,,0.44,meteohub,2013-06-17 14:30:00,
2013-06-17 09:31:00,68.9,65.8,-100.00,NNE,29,1.0,5.0,90,0.29,,,0.44,meteohub,2013-06-17 14:31:00,
2013-06-17 09:32:00,68.9,65.8,-100.00,NNE,29,0.0,5.0,90,0.29,,,0.44,meteohub,2013-06-17 14:32:00,
2013-06-17 09:33:00,68.9,65.8,-100.00,NNE,29,0.0,5.0,90,0.29,,,0.44,meteohub,2013-06-17 14:33:00,
2013-06-17 09:36:00,68.9,66.2,-100.00,NNE,29,0.0,4.0,91,0.16,,,0.45,meteohub,2013-06-17 14:36:00,
2013-06-17 09:37:00,68.9,66.2,-100.00,NNE,29,0.0,4.0,91,0.16,,,0.45,meteohub,2013-06-17 14:37:00,
2013-06-17 09:38:00,68.9,66.2,-100.00,NNE,29,0.0,4.0,91,0.16,,,0.45,meteohub,2013-06-17 14:38:00,
2013-06-17 09:41:00,68.9,66.2,-100.00,NNE,29,0.0,2.0,91,0.15,,,0.46,meteohub,2013-06-17 14:41:00,
2013-06-17 09:42:00,68.9,66.2,-100.00,NNE,29,0.0,2.0,91,0.15,,,0.46,meteohub,2013-06-17 14:42:00,
2013-06-17 09:44:00,68.9,66.2,-100.00,NNE,29,0.0,2.0,91,0.15,,,0.46,meteohub,2013-06-17 14:44:00,
2013-06-17 09:46:00,68.9,66.2,-100.00,NNE,29,2.0,2.0,91,0.16,,,0.48,meteohub,2013-06-17 14:46:00,
2013-06-17 09:47:00,68.9,66.2,-100.00,NNE,29,2.0,2.0,91,0.16,,,0.48,meteohub,2013-06-17 14:47:00,
2013-06-17 09:48:00,68.9,66.2,-100.00,NE,35,4.0,4.0,91,0.16,,,0.48,meteohub,2013-06-17 14:48:00,
2013-06-17 09:49:00,69.1,66.4,-100.00,NE,48,3.0,3.0,91,0.16,,,0.48,meteohub,2013-06-17 14:49:00,
2013-06-17 09:51:00,69.1,66.4,-100.00,NE,48,3.0,5.0,91,0.14,,,0.50,meteohub,2013-06-17 14:51:00,
2013-06-17 09:52:00,69.1,66.4,-100.00,NE,48,3.0,5.0,91,0.14,,,0.50,meteohub,2013-06-17 14:52:00,
2013-06-17 09:53:00,69.1,66.4,-100.00,NE,48,2.0,5.0,91,0.14,,,0.50,meteohub,2013-06-17 14:53:00,
2013-06-17 09:54:00,69.1,66.4,-100.00,NE,48,1.0,5.0,91,0.14,,,0.50,meteohub,2013-06-17 14:54:00,
2013-06-17 09:57:00,69.1,66.4,-100.00,NE,48,2.0,5.0,91,0.14,,,0.51,meteohub,2013-06-17 14:57:00,
2013-06-17 09:58:00,69.1,66.4,-100.00,NE,48,2.0,5.0,91,0.14,,,0.51,meteohub,2013-06-17 14:58:00,
2013-06-17 10:00:00,69.1,66.4,-100.00,NE,51,4.0,5.0,91,0.14,,,0.51,meteohub,2013-06-17 15:00:00,
2013-06-17 10:02:00,69.1,66.7,-100.00,NE,56,1.0,5.0,92,0.15,,,0.53,meteohub,2013-06-17 15:02:00,
2013-06-17 10:03:00,69.1,66.7,-100.00,ENE,59,4.0,5.0,92,0.15,,,0.53,meteohub,2013-06-17 15:03:00,
2013-06-17 10:04:00,69.1,66.7,-100.00,ENE,59,4.0,5.0,92,0.15,,,0.53,meteohub,2013-06-17 15:04:00,
2013-06-17 10:05:00,69.1,66.7,-100.00,East,86,5.0,6.0,92,0.17,,,0.54,meteohub,2013-06-17 15:05:00,
2013-06-17 10:08:00,69.1,66.7,-100.00,SSE,154,7.0,7.0,92,0.17,,,0.54,meteohub,2013-06-17 15:08:00,
2013-06-17 10:09:00,69.1,66.7,-100.00,SSE,159,9.0,9.0,92,0.17,,,0.54,meteohub,2013-06-17 15:09:00,
2013-06-17 10:10:00,69.1,66.7,-100.00,SSE,162,4.0,6.0,92,0.17,,,0.55,meteohub,2013-06-17 15:10:00,
2013-06-17 10:13:00,69.1,66.7,-100.00,SSE,162,5.0,9.0,92,0.16,,,0.55,meteohub,2013-06-17 15:13:00,
2013-06-17 10:14:00,69.1,66.7,-100.00,SSE,159,4.0,9.0,92,0.16,,,0.55,meteohub,2013-06-17 15:14:00,
2013-06-17 10:16:00,68.9,66.6,-100.00,SSE,157,5.0,9.0,92,0.17,,,0.57,meteohub,2013-06-17 15:16:00,
2013-06-17 10:18:00,68.9,66.6,-100.00,SSE,154,4.0,9.0,92,0.17,,,0.57,meteohub,2013-06-17 15:18:00,
2013-06-17 10:19:00,68.9,66.6,-100.00,SSE,154,3.0,9.0,92,0.17,,,0.57,meteohub,2013-06-17 15:19:00,
2013-06-17 10:21:00,68.9,66.6,-100.00,SE,146,5.0,9.0,92,0.17,,,0.57,meteohub,2013-06-17 15:21:00,
2013-06-17 10:22:00,68.9,66.6,-100.00,SE,146,5.0,9.0,92,0.17,,,0.57,meteohub,2013-06-17 15:22:00,
2013-06-17 10:23:00,68.9,66.6,-100.00,SSE,147,7.0,9.0,92,0.17,,,0.57,meteohub,2013-06-17 15:23:00,
2013-06-17 10:24:00,68.9,66.6,-100.00,SE,141,6.0,9.0,92,0.17,,,0.57,meteohub,2013-06-17 15:24:00,
2013-06-17 10:27:00,68.9,66.6,-100.00,SE,136,10.0,11.0,92,0.16,,,0.59,meteohub,2013-06-17 15:27:00,
2013-06-17 10:29:00,68.9,66.6,-100.00,SE,145,12.0,12.0,92,0.16,,,0.59,meteohub,2013-06-17 15:29:00,
2013-06-17 10:30:00,68.9,66.6,-100.00,SE,127,12.0,12.0,92,0.16,,,0.59,meteohub,2013-06-17 15:30:00,
2013-06-17 10:32:00,68.7,66.4,-100.00,ESE,119,13.0,16.0,92,0.14,,,0.59,meteohub,2013-06-17 15:32:00,
2013-06-17 10:34:00,68.7,66.4,-100.00,SE,136,11.0,16.0,92,0.14,,,0.59,meteohub,2013-06-17 15:34:00,
2013-06-17 10:35:00,68.7,66.4,-100.00,ESE,121,10.0,16.0,92,0.14,,,0.60,meteohub,2013-06-17 15:35:00,
2013-06-17 10:37:00,68.7,66.4,-100.00,SE,135,9.0,17.0,92,0.14,,,0.60,meteohub,2013-06-17 15:37:00,
2013-06-17 10:39:00,68.9,66.6,-100.00,SE,146,4.0,17.0,92,0.14,,,0.60,meteohub,2013-06-17 15:39:00,
2013-06-17 10:40:00,68.9,66.6,-100.00,SSE,161,6.0,17.0,92,0.13,,,0.60,meteohub,2013-06-17 15:40:00,
2013-06-17 10:42:00,68.9,66.6,-100.00,South,174,7.0,17.0,92,0.13,,,0.60,meteohub,2013-06-17 15:42:00,
2013-06-17 10:43:00,68.9,66.6,-100.00,SSE,154,6.0,17.0,92,0.13,,,0.60,meteohub,2013-06-17 15:43:00,
2013-06-17 10:44:00,69.1,66.7,-100.00,SSE,159,8.0,17.0,92,0.13,,,0.60,meteohub,2013-06-17 15:44:00,
2013-06-17 10:46:00,69.1,66.9,-100.00,SSE,150,12.0,17.0,93,0.11,,,0.60,meteohub,2013-06-17 15:46:00,
2013-06-17 10:48:00,69.3,66.9,-100.00,SSE,155,6.0,17.0,92,0.11,,,0.60,meteohub,2013-06-17 15:48:00,
2013-06-17 10:49:00,69.3,66.9,-100.00,SSE,157,10.0,17.0,92,0.11,,,0.60,meteohub,2013-06-17 15:49:00,
2013-06-17 10:50:00,69.3,66.9,-100.00,SE,146,9.0,15.0,92,0.10,,,0.60,meteohub,2013-06-17 15:50:00,
2013-06-17 10:51:00,69.3,66.9,-100.00,SE,142,9.0,15.0,92,0.10,,,0.60,meteohub,2013-06-17 15:51:00,
2013-06-17 10:53:00,69.4,67.1,-100.00,SSE,152,8.0,15.0,92,0.10,,,0.60,meteohub,2013-06-17 15:53:00,
2013-06-17 10:54:00,69.6,67.3,-100.00,SSE,159,5.0,15.0,92,0.10,,,0.60,meteohub,2013-06-17 15:54:00,
2013-06-17 10:55:00,69.6,67.3,-100.00,SSE,158,12.0,15.0,92,0.10,,,0.60,meteohub,2013-06-17 15:55:00,
2013-06-17 10:56:00,69.8,67.3,-100.00,SE,141,11.0,14.0,92,0.08,,,0.60,meteohub,2013-06-17 15:56:00,
2013-06-17 10:58:00,70.0,67.5,-100.00,SE,146,9.0,14.0,92,0.08,,,0.60,meteohub,2013-06-17 15:58:00,
2013-06-17 11:00:00,70.2,67.6,-100.00,SSE,150,4.0,14.0,92,0.08,,,0.60,meteohub,2013-06-17 16:00:00,
2013-06-17 11:01:00,70.3,67.8,-100.00,SSE,151,2.0,14.0,92,0.07,,,0.60,meteohub,2013-06-17 16:01:00,
2013-06-17 11:02:00,70.3,67.8,-100.00,SSE,153,5.0,14.0,92,0.07,,,0.60,meteohub,2013-06-17 16:02:00,
2013-06-17 11:04:00,70.5,68.0,-100.00,SSE,165,5.0,14.0,92,0.07,,,0.60,meteohub,2013-06-17 16:04:00,
2013-06-17 11:05:00,70.9,68.4,-100.00,SSW,198,9.0,14.0,92,0.07,,,0.60,meteohub,2013-06-17 16:05:00,
2013-06-17 11:06:00,70.9,68.4,-100.00,SSW,193,6.0,14.0,92,0.05,,,0.60,meteohub,2013-06-17 16:06:00,
2013-06-17 11:07:00,70.9,68.4,-100.00,SSE,159,11.0,14.0,92,0.05,,,0.60,meteohub,2013-06-17 16:07:00,
2013-06-17 11:09:00,70.9,68.4,-100.00,South,175,3.0,14.0,92,0.05,,,0.60,meteohub,2013-06-17 16:09:00,
2013-06-17 11:10:00,71.1,68.5,-100.00,South,178,5.0,14.0,92,0.05,,,0.60,meteohub,2013-06-17 16:10:00,
2013-06-17 11:11:00,71.2,68.7,-100.00,SSW,192,4.0,13.0,92,0.04,,,0.60,meteohub,2013-06-17 16:11:00,
2013-06-17 11:12:00,71.2,68.7,-100.00,South,179,7.0,13.0,92,0.04,,,0.60,meteohub,2013-06-17 16:12:00,
2013-06-17 11:14:00,71.2,68.7,-100.00,South,170,3.0,13.0,92,0.04,,,0.60,meteohub,2013-06-17 16:14:00,
2013-06-17 11:16:00,71.6,69.1,-100.00,SSE,156,4.0,13.0,92,0.03,,,0.60,meteohub,2013-06-17 16:16:00,
2013-06-17 11:17:00,71.6,69.1,-100.00,SSE,155,8.0,13.0,92,0.03,,,0.60,meteohub,2013-06-17 16:17:00,
2013-06-17 11:18:00,71.8,69.3,-100.00,SSE,161,7.0,13.0,92,0.03,,,0.60,meteohub,2013-06-17 16:18:00,
2013-06-17 11:20:00,72.0,69.4,-100.00,SSE,160,4.0,13.0,92,0.03,,,0.60,meteohub,2013-06-17 16:20:00,
2013-06-17 11:21:00,72.1,69.6,-100.00,SSE,166,5.0,13.0,92,0.02,,,0.60,meteohub,2013-06-17 16:21:00,
2013-06-17 11:22:00,72.1,69.6,-100.00,SSE,165,2.0,13.0,92,0.02,,,0.60,meteohub,2013-06-17 16:22:00,
2013-06-17 11:23:00,72.3,69.6,-100.00,SSE,165,2.0,13.0,91,0.02,,,0.60,meteohub,2013-06-17 16:23:00,
2013-06-17 11:26:00,72.9,70.2,-100.00,SSE,165,3.0,12.0,91,0.01,,,0.60,meteohub,2013-06-17 16:26:00,
2013-06-17 11:27:00,73.0,70.3,-100.00,SSE,163,3.0,12.0,91,0.01,,,0.60,meteohub,2013-06-17 16:27:00,
2013-06-17 11:28:00,73.2,70.5,-100.00,SSE,167,3.0,12.0,91,0.01,,,0.60,meteohub,2013-06-17 16:28:00,
2013-06-17 11:31:00,73.8,70.9,-100.00,SSE,168,5.0,11.0,91,0.00,,,0.60,meteohub,2013-06-17 16:31:00,
2013-06-17 11:32:00,73.8,70.9,-100.00,SSE,168,4.0,11.0,91,0.00,,,0.60,meteohub,2013-06-17 16:32:00,
2013-06-17 11:33:00,73.8,70.7,-100.00,South,171,8.0,11.0,90,0.00,,,0.60,meteohub,2013-06-17 16:33:00,
2013-06-17 11:36:00,73.9,70.5,-100.00,South,169,4.0,11.0,89,0.00,,,0.60,meteohub,2013-06-17 16:36:00,
2013-06-17 11:37:00,73.9,70.5,-100.00,South,169,5.0,11.0,89,0.00,,,0.60,meteohub,2013-06-17 16:37:00,
2013-06-17 11:38:00,73.9,70.5,-100.00,South,169,3.0,11.0,89,0.00,,,0.60,meteohub,2013-06-17 16:38:00,
2013-06-17 11:39:00,73.9,70.5,-100.00,South,169,2.0,11.0,89,0.00,,,0.60,meteohub,2013-06-17 16:39:00,
2013-06-17 11:42:00,74.7,70.9,-100.00,SSW,192,5.0,10.0,88,0.00,,,0.60,meteohub,2013-06-17 16:42:00,
2013-06-17 11:43:00,74.7,70.5,-100.00,SSW,192,4.0,10.0,87,0.00,,,0.60,meteohub,2013-06-17 16:43:00,
2013-06-17 11:44:00,74.7,70.5,-100.00,SSW,194,5.0,10.0,87,0.00,,,0.60,meteohub,2013-06-17 16:44:00,
2013-06-17 11:47:00,75.4,71.2,-100.00,SSW,196,4.0,10.0,87,0.00,,,0.60,meteohub,2013-06-17 16:47:00,
2013-06-17 11:48:00,75.4,70.9,-100.00,SSW,196,4.0,10.0,86,0.00,,,0.60,meteohub,2013-06-17 16:48:00,
2013-06-17 11:49:00,75.6,71.1,-100.00,SSW,196,3.0,10.0,86,0.00,,,0.60,meteohub,2013-06-17 16:49:00,
2013-06-17 11:51:00,75.7,70.9,-100.00,SSW,197,4.0,9.0,85,0.00,,,0.60,meteohub,2013-06-17 16:51:00,
2013-06-17 11:52:00,75.9,71.1,-100.00,SSW,199,0.0,9.0,85,0.00,,,0.60,meteohub,2013-06-17 16:52:00,
2013-06-17 11:53:00,76.3,71.4,-100.00,SSW,199,2.0,9.0,85,0.00,,,0.60,meteohub,2013-06-17 16:53:00,
2013-06-17 11:54:00,76.5,71.6,-100.00,SSW,200,2.0,9.0,85,0.00,,,0.60,meteohub,2013-06-17 16:54:00,
2013-06-17 11:56:00,76.5,70.9,-100.00,SSW,201,2.0,9.0,83,0.00,,,0.60,meteohub,2013-06-17 16:56:00,
2013-06-17 11:57:00,76.6,71.4,-100.00,SSW,201,0.0,9.0,84,0.00,,,0.60,meteohub,2013-06-17 16:57:00,
2013-06-17 11:59:00,76.8,71.2,-100.00,SW,223,3.0,9.0,83,0.00,,,0.60,meteohub,2013-06-17 16:59:00,
2013-06-17 12:00:00,77.0,71.1,-100.00,SW,227,3.0,9.0,82,0.00,,,0.60,meteohub,2013-06-17 17:00:00,
2013-06-17 12:01:00,77.0,71.1,-100.00,WSW,243,5.0,7.0,82,0.00,,,0.60,meteohub,2013-06-17 17:01:00,
2013-06-17 12:03:00,77.2,70.5,-100.00,WSW,245,2.0,7.0,80,0.00,,,0.60,meteohub,2013-06-17 17:03:00,
2013-06-17 12:04:00,77.4,71.1,-100.00,WSW,239,4.0,7.0,81,0.00,,,0.60,meteohub,2013-06-17 17:04:00,
2013-06-17 12:05:00,77.4,71.1,-100.00,WSW,239,3.0,7.0,81,0.00,,,0.60,meteohub,2013-06-17 17:05:00,
2013-06-17 12:06:00,77.5,71.2,-100.00,SW,232,6.0,7.0,81,0.00,,,0.60,meteohub,2013-06-17 17:06:00,
2013-06-17 12:08:00,77.9,70.9,-100.00,SW,223,6.0,7.0,79,0.00,,,0.60,meteohub,2013-06-17 17:08:00,
2013-06-17 12:10:00,78.1,70.7,-100.00,SW,217,2.0,7.0,78,0.00,,,0.60,meteohub,2013-06-17 17:10:00,
2013-06-17 12:11:00,78.4,71.4,-100.00,SW,221,10.0,10.0,79,0.00,,,0.60,meteohub,2013-06-17 17:11:00,
2013-06-17 12:13:00,78.6,70.3,-100.00,SW,221,9.0,10.0,76,0.00,,,0.60,meteohub,2013-06-17 17:13:00,
2013-06-17 12:15:00,78.6,70.0,-100.00,SW,228,5.0,10.0,75,0.00,,,0.60,meteohub,2013-06-17 17:15:00,
2013-06-17 12:16:00,78.8,70.2,-100.00,SW,228,1.0,13.0,75,0.00,,,0.60,meteohub,2013-06-17 17:16:00,
2013-06-17 12:17:00,78.8,70.2,-100.00,SW,229,0.0,13.0,75,0.00,,,0.60,meteohub,2013-06-17 17:17:00,
2013-06-17 12:18:00,79.2,70.9,-100.00,SW,233,5.0,13.0,76,0.00,,,0.60,meteohub,2013-06-17 17:18:00,
2013-06-17 12:20:00,79.5,71.6,-100.00,WSW,238,0.0,13.0,77,0.00,,,0.60,meteohub,2013-06-17 17:20:00,
2013-06-17 12:21:00,79.9,72.3,-100.00,WSW,238,3.0,13.0,78,0.00,,,0.60,meteohub,2013-06-17 17:21:00,
2013-06-17 12:22:00,79.9,72.0,-100.00,WSW,238,0.0,13.0,77,0.00,,,0.60,meteohub,2013-06-17 17:22:00,
2013-06-17 12:23:00,79.9,71.6,-100.00,SW,234,5.0,13.0,76,0.00,,,0.60,meteohub,2013-06-17 17:23:00,
2013-06-17 12:26:00,80.1,71.1,-100.00,WSW,238,4.0,13.0,74,0.00,,,0.60,meteohub,2013-06-17 17:26:00,
2013-06-17 12:27:00,80.1,71.1,-100.00,SW,214,6.0,13.0,74,0.00,,,0.60,meteohub,2013-06-17 17:27:00,
2013-06-17 12:28:00,80.1,70.7,-100.00,SW,219,6.0,13.0,73,0.00,,,0.60,meteohub,2013-06-17 17:28:00,
2013-06-17 12:31:00,80.1,70.7,-100.00,SW,219,1.0,12.0,73,0.00,,,0.60,meteohub,2013-06-17 17:31:00,
2013-06-17 12:32:00,80.2,71.2,-100.00,SW,219,4.0,12.0,74,0.00,,,0.60,meteohub,2013-06-17 17:32:00,
2013-06-17 12:33:00,80.2,71.2,-100.00,SW,219,3.0,12.0,74,0.00,,,0.60,meteohub,2013-06-17 17:33:00,
2013-06-17 12:34:00,80.2,71.6,-100.00,SW,218,6.0,12.0,75,0.00,,,0.60,meteohub,2013-06-17 17:34:00,
2013-06-17 12:36:00,80.4,70.9,-100.00,SSW,213,4.0,12.0,73,0.00,,,0.60,meteohub,2013-06-17 17:36:00,
2013-06-17 12:37:00,80.4,70.5,-100.00,SSW,213,4.0,12.0,72,0.00,,,0.60,meteohub,2013-06-17 17:37:00,
2013-06-17 12:39:00,80.8,71.8,-100.00,SSW,213,0.0,12.0,74,0.00,,,0.60,meteohub,2013-06-17 17:39:00,
2013-06-17 12:42:00,80.8,71.8,-100.00,SSW,213,2.0,11.0,74,0.00,,,0.60,meteohub,2013-06-17 17:42:00,
2013-06-17 12:43:00,80.8,71.8,-100.00,SSW,213,3.0,11.0,74,0.00,,,0.60,meteohub,2013-06-17 17:43:00,
2013-06-17 12:45:00,81.0,71.1,-100.00,SSW,200,4.0,11.0,72,0.00,,,0.60,meteohub,2013-06-17 17:45:00,
2013-06-17 12:47:00,81.1,70.9,-100.00,SSW,200,4.0,10.0,71,0.00,,,0.60,meteohub,2013-06-17 17:47:00,
2013-06-17 12:48:00,81.1,70.9,-100.00,South,178,7.0,10.0,71,0.00,,,0.60,meteohub,2013-06-17 17:48:00,
2013-06-17 12:50:00,81.1,70.0,-100.00,SW,215,4.0,10.0,69,0.00,,,0.60,meteohub,2013-06-17 17:50:00,
2013-06-17 12:53:00,81.3,69.3,-100.00,SW,215,0.0,11.0,67,0.00,,,0.60,meteohub,2013-06-17 17:53:00,
2013-06-17 12:54:00,81.7,70.5,-100.00,SSW,205,7.0,11.0,69,0.00,,,0.60,meteohub,2013-06-17 17:54:00,
2013-06-17 12:55:00,81.9,69.4,-100.00,SW,215,7.0,11.0,66,0.00,,,0.60,meteohub,2013-06-17 17:55:00,
2013-06-17 12:56:00,81.9,69.4,-100.00,SSW,213,3.0,12.0,66,0.00,,,0.60,meteohub,2013-06-17 17:56:00,
2013-06-17 12:58:00,82.0,69.6,-100.00,SSW,200,6.0,12.0,66,0.00,,,0.60,meteohub,2013-06-17 17:58:00,
2013-06-17 12:59:00,82.0,70.0,-100.00,SSW,197,4.0,12.0,67,0.00,,,0.60,meteohub,2013-06-17 17:59:00,
2013-06-17 13:00:00,82.2,70.2,-100.00,SSW,197,3.0,12.0,67,0.00,,,0.60,meteohub,2013-06-17 18:00:00,
2013-06-17 13:01:00,82.2,70.2,-100.00,SSW,197,4.0,12.0,67,0.00,,,0.60,meteohub,2013-06-17 18:01:00,
2013-06-17 13:03:00,82.4,70.3,-100.00,SSW,210,2.0,12.0,67,0.00,,,0.60,meteohub,2013-06-17 18:03:00,
2013-06-17 13:04:00,82.4,70.3,-100.00,SSW,210,5.0,12.0,67,0.00,,,0.60,meteohub,2013-06-17 18:04:00,
2013-06-17 13:05:00,82.4,70.3,-100.00,SSW,209,4.0,12.0,67,0.00,,,0.60,meteohub,2013-06-17 18:05:00,
2013-06-17 13:06:00,82.6,70.5,-100.00,SSW,212,6.0,12.0,67,0.00,,,0.60,meteohub,2013-06-17 18:06:00,
2013-06-17 13:09:00,82.6,70.0,-100.00,SSW,213,3.0,12.0,66,0.00,,,0.60,meteohub,2013-06-17 18:09:00,
2013-06-17 13:11:00,82.6,70.5,-100.00,SW,214,4.0,9.0,67,0.00,,,0.60,meteohub,2013-06-17 18:11:00,
2013-06-17 13:14:00,83.1,70.5,-100.00,SSW,213,6.0,9.0,66,0.00,,,0.60,meteohub,2013-06-17 18:14:00,
2013-06-17 13:16:00,83.5,70.5,-100.00,SW,223,7.0,9.0,65,0.00,,,0.60,meteohub,2013-06-17 18:16:00,
2013-06-17 13:17:00,83.7,70.2,-100.00,WSW,244,3.0,9.0,64,0.00,,,0.60,meteohub,2013-06-17 18:17:00,
2013-06-17 13:19:00,83.7,69.8,-100.00,SW,234,4.0,9.0,63,0.00,,,0.60,meteohub,2013-06-17 18:19:00,
2013-06-17 13:20:00,83.7,69.3,-100.00,WSW,244,3.0,9.0,62,0.00,,,0.60,meteohub,2013-06-17 18:20:00,
2013-06-17 13:21:00,83.7,69.8,-100.00,SW,236,7.0,11.0,63,0.00,,,0.60,meteohub,2013-06-17 18:21:00,
2013-06-17 13:22:00,83.7,69.8,-100.00,SW,218,2.0,11.0,63,0.00,,,0.60,meteohub,2013-06-17 18:22:00,
2013-06-17 13:25:00,84.0,70.5,-100.00,SW,224,6.0,11.0,64,0.00,,,0.60,meteohub,2013-06-17 18:25:00,
2013-06-17 13:26:00,84.0,70.5,-100.00,SW,224,1.0,13.0,64,0.00,,,0.60,meteohub,2013-06-17 18:26:00,
2013-06-17 13:27:00,84.0,70.0,-100.00,SW,227,1.0,13.0,63,0.00,,,0.60,meteohub,2013-06-17 18:27:00,
2013-06-17 13:31:00,84.0,70.0,-100.00,SW,226,0.0,13.0,63,0.00,,,0.60,meteohub,2013-06-17 18:31:00,
2013-06-17 13:32:00,84.0,70.0,-100.00,SW,226,1.0,13.0,63,0.00,,,0.60,meteohub,2013-06-17 18:32:00,
2013-06-17 13:33:00,84.0,70.0,-100.00,SW,226,0.0,13.0,63,0.00,,,0.60,meteohub,2013-06-17 18:33:00,
2013-06-17 13:36:00,84.0,70.5,-100.00,SW,227,3.0,12.0,64,0.00,,,0.60,meteohub,2013-06-17 18:36:00,
2013-06-17 13:38:00,83.8,70.3,-100.00,SW,227,0.0,12.0,64,0.00,,,0.60,meteohub,2013-06-17 18:38:00,
2013-06-17 13:41:00,83.8,70.3,-100.00,SW,229,3.0,6.0,64,0.00,,,0.60,meteohub,2013-06-17 18:41:00,
2013-06-17 13:42:00,83.8,70.3,-100.00,SW,229,2.0,6.0,64,0.00,,,0.60,meteohub,2013-06-17 18:42:00,
2013-06-17 13:43:00,83.8,71.2,-100.00,SW,229,2.0,6.0,66,0.00,,,0.60,meteohub,2013-06-17 18:43:00,
2013-06-17 13:44:00,83.8,71.2,-100.00,SW,229,0.0,6.0,66,0.00,,,0.60,meteohub,2013-06-17 18:44:00,
2013-06-17 13:46:00,83.8,71.2,-100.00,SW,229,1.0,6.0,66,0.00,,,0.60,meteohub,2013-06-17 18:46:00,
2013-06-17 13:47:00,83.8,71.2,-100.00,SW,230,4.0,6.0,66,0.00,,,0.60,meteohub,2013-06-17 18:47:00,
2013-06-17 13:48:00,83.8,71.8,-100.00,SW,230,2.0,6.0,67,0.00,,,0.60,meteohub,2013-06-17 18:48:00,
2013-06-17 13:49:00,83.8,71.8,-100.00,SW,230,0.0,6.0,67,0.00,,,0.60,meteohub,2013-06-17 18:49:00,
2013-06-17 13:52:00,84.0,71.4,-100.00,SW,230,0.0,6.0,66,0.00,,,0.60,meteohub,2013-06-17 18:52:00,
2013-06-17 13:53:00,84.0,71.4,-100.00,SW,230,1.0,6.0,66,0.00,,,0.60,meteohub,2013-06-17 18:53:00,
2013-06-17 13:54:00,84.0,71.1,-100.00,SW,231,4.0,6.0,65,0.00,,,0.60,meteohub,2013-06-17 18:54:00,
2013-06-17 13:57:00,84.0,71.1,-100.00,SW,231,1.0,6.0,65,0.00,,,0.60,meteohub,2013-06-17 18:57:00,
2013-06-17 13:58:00,84.0,72.0,-100.00,SW,231,2.0,6.0,67,0.00,,,0.60,meteohub,2013-06-17 18:58:00,
2013-06-17 13:59:00,84.0,71.4,-100.00,SW,231,1.0,6.0,66,0.00,,,0.60,meteohub,2013-06-17 18:59:00,
2013-06-17 14:00:00,84.0,72.0,-100.00,SW,231,2.0,6.0,67,0.00,,,0.60,meteohub,2013-06-17 19:00:00,
2013-06-17 14:02:00,83.8,72.1,-100.00,SW,232,3.0,6.0,68,0.00,,,0.60,meteohub,2013-06-17 19:02:00,
2013-06-17 14:03:00,83.8,71.8,-100.00,WSW,240,2.0,6.0,67,0.00,,,0.60,meteohub,2013-06-17 19:03:00,
2013-06-17 14:04:00,83.8,71.8,-100.00,WSW,240,3.0,6.0,67,0.00,,,0.60,meteohub,2013-06-17 19:04:00,
2013-06-17 14:05:00,83.7,71.6,-100.00,WSW,240,0.0,6.0,67,0.00,,,0.60,meteohub,2013-06-17 19:05:00,
2013-06-17 14:08:00,83.8,71.8,-100.00,SSW,207,3.0,5.0,67,0.00,,,0.60,meteohub,2013-06-17 19:08:00,
2013-06-17 14:09:00,83.8,71.8,-100.00,SSW,207,0.0,5.0,67,0.00,,,0.60,meteohub,2013-06-17 19:09:00,
2013-06-17 14:10:00,84.0,71.4,-100.00,SSW,207,3.0,5.0,66,0.00,,,0.60,meteohub,2013-06-17 19:10:00,
2013-06-17 14:11:00,84.4,71.2,-100.00,SSW,206,5.0,5.0,65,0.00,,,0.60,meteohub,2013-06-17 19:11:00,
2013-06-17 14:13:00,84.7,70.7,-100.00,SSW,213,6.0,6.0,63,0.00,,,0.60,meteohub,2013-06-17 19:13:00,
2013-06-17 14:14:00,84.7,70.3,-100.00,SW,216,7.0,7.0,62,0.00,,,0.60,meteohub,2013-06-17 19:14:00,
2013-06-17 14:15:00,85.1,70.2,-100.00,SW,217,3.0,5.0,61,0.00,,,0.60,meteohub,2013-06-17 19:15:00,
2013-06-17 14:16:00,85.5,70.9,-100.00,SW,219,2.0,10.0,62,0.00,,,0.60,meteohub,2013-06-17 19:16:00,
2013-06-17 14:19:00,85.6,70.2,-100.00,WSW,237,5.0,10.0,60,0.00,,,0.60,meteohub,2013-06-17 19:19:00,
2013-06-17 14:20:00,85.8,70.9,-100.00,West,262,5.0,10.0,61,0.00,,,0.60,meteohub,2013-06-17 19:20:00,
2013-06-17 14:22:00,85.8,71.2,-100.00,West,268,4.0,10.0,62,0.00,,,0.60,meteohub,2013-06-17 19:22:00,
2013-06-17 14:24:00,85.8,71.2,-100.00,West,267,2.0,10.0,62,0.00,,,0.60,meteohub,2013-06-17 19:24:00,
2013-06-17 14:25:00,85.8,71.2,-100.00,West,267,1.0,10.0,62,0.00,,,0.60,meteohub,2013-06-17 19:25:00,
2013-06-17 14:27:00,86.2,72.5,-100.00,SW,225,7.0,10.0,64,0.00,,,0.60,meteohub,2013-06-17 19:27:00,
2013-06-17 14:29:00,86.4,71.2,-100.00,SSW,213,6.0,10.0,61,0.00,,,0.60,meteohub,2013-06-17 19:29:00,
2013-06-17 14:30:00,86.4,70.9,-100.00,SW,216,2.0,12.0,60,0.00,,,0.60,meteohub,2013-06-17 19:30:00,
2013-06-17 14:31:00,86.4,70.9,-100.00,SW,216,0.0,12.0,60,0.00,,,0.60,meteohub,2013-06-17 19:31:00,
2013-06-17 14:33:00,86.7,71.6,-100.00,SW,216,3.0,12.0,61,0.00,,,0.60,meteohub,2013-06-17 19:33:00,
2013-06-17 14:35:00,87.1,72.5,-100.00,SW,217,0.0,12.0,62,0.00,,,0.60,meteohub,2013-06-17 19:35:00,
2013-06-17 14:36:00,87.1,72.0,-100.00,SW,221,1.0,12.0,61,0.00,,,0.60,meteohub,2013-06-17 19:36:00,
2013-06-17 14:38:00,87.4,71.8,-100.00,SW,234,1.0,12.0,60,0.00,,,0.60,meteohub,2013-06-17 19:38:00,
2013-06-17 14:40:00,87.6,71.6,-100.00,WSW,257,6.0,12.0,59,0.00,,,0.60,meteohub,2013-06-17 19:40:00,
2013-06-17 14:41:00,87.6,70.0,-100.00,West,269,7.0,12.0,56,0.00,,,0.60,meteohub,2013-06-17 19:41:00,
2013-06-17 14:42:00,87.6,70.0,-100.00,West,269,3.0,12.0,56,0.00,,,0.60,meteohub,2013-06-17 19:42:00,
2013-06-17 14:43:00,87.6,72.5,-100.00,SW,219,6.0,12.0,61,0.00,,,0.60,meteohub,2013-06-17 19:43:00,
2013-06-17 14:45:00,87.6,70.0,-100.00,SW,234,7.0,11.0,56,0.00,,,0.60,meteohub,2013-06-17 19:45:00,
2013-06-17 14:46:00,87.6,70.5,-100.00,SW,223,6.0,11.0,57,0.00,,,0.60,meteohub,2013-06-17 19:46:00,
2013-06-17 14:47:00,87.8,70.7,-100.00,SW,219,9.0,11.0,57,0.00,,,0.60,meteohub,2013-06-17 19:47:00,
2013-06-17 14:49:00,88.0,71.4,-100.00,SSW,202,17.0,17.0,58,0.00,,,0.60,meteohub,2013-06-17 19:49:00,
2013-06-17 14:50:00,87.8,70.2,-100.00,SSW,211,5.0,17.0,56,0.00,,,0.60,meteohub,2013-06-17 19:50:00,
2013-06-17 14:51:00,88.0,70.3,-100.00,SW,215,5.0,17.0,56,0.00,,,0.60,meteohub,2013-06-17 19:51:00,
2013-06-17 14:52:00,88.0,70.3,-100.00,SW,216,4.0,17.0,56,0.00,,,0.60,meteohub,2013-06-17 19:52:00,
2013-06-17 14:54:00,88.2,72.0,-100.00,SW,217,5.0,17.0,59,0.00,,,0.60,meteohub,2013-06-17 19:54:00,
2013-06-17 14:56:00,88.2,71.1,-100.00,SW,231,6.0,17.0,57,0.00,,,0.60,meteohub,2013-06-17 19:56:00,
2013-06-17 14:57:00,88.3,71.6,-100.00,SW,227,6.0,17.0,58,0.00,,,0.60,meteohub,2013-06-17 19:57:00,
2013-06-17 14:58:00,88.3,71.6,-100.00,SW,218,10.0,17.0,58,0.00,,,0.60,meteohub,2013-06-17 19:58:00,
2013-06-17 14:59:00,88.3,70.7,-100.00,SW,236,3.0,17.0,56,0.00,,,0.60,meteohub,2013-06-17 19:59:00,
2013-06-17 15:01:00,88.3,71.2,-100.00,WSW,242,2.0,17.0,57,0.00,,,0.60,meteohub,2013-06-17 20:01:00,
2013-06-17 15:02:00,88.3,71.2,-100.00,WSW,242,2.0,17.0,57,0.00,,,0.60,meteohub,2013-06-17 20:02:00,
2013-06-17 15:04:00,88.3,71.2,-100.00,WSW,249,3.0,17.0,57,0.00,,,0.60,meteohub,2013-06-17 20:04:00,
2013-06-17 15:07:00,88.3,72.1,-100.00,SW,236,4.0,12.0,59,0.00,,,0.60,meteohub,2013-06-17 20:07:00,
2013-06-17 15:08:00,88.5,72.9,-100.00,WSW,238,4.0,12.0,60,0.00,,,0.60,meteohub,2013-06-17 20:08:00,
2013-06-17 15:09:00,88.5,71.4,-100.00,SW,217,6.0,12.0,57,0.00,,,0.60,meteohub,2013-06-17 20:09:00,
2013-06-17 15:10:00,88.5,70.9,-100.00,SW,216,7.0,12.0,56,0.00,,,0.60,meteohub,2013-06-17 20:10:00,
2013-06-17 15:13:00,88.5,71.4,-100.00,SSW,212,9.0,12.0,57,0.00,,,0.60,meteohub,2013-06-17 20:13:00,
2013-06-17 15:14:00,88.9,71.6,-100.00,SW,222,3.0,12.0,57,0.00,,,0.60,meteohub,2013-06-17 20:14:00,
2013-06-17 15:15:00,88.9,72.1,-100.00,SW,229,3.0,12.0,58,0.00,,,0.60,meteohub,2013-06-17 20:15:00,
2013-06-17 15:18:00,89.1,72.9,-100.00,SW,227,2.0,10.0,59,0.00,,,0.60,meteohub,2013-06-17 20:18:00,
2013-06-17 15:19:00,89.1,72.3,-100.00,SW,233,2.0,10.0,58,0.00,,,0.60,meteohub,2013-06-17 20:19:00,
2013-06-17 15:21:00,89.2,72.5,-100.00,SW,236,3.0,10.0,58,0.00,,,0.60,meteohub,2013-06-17 20:21:00,
2013-06-17 15:24:00,89.4,71.6,-100.00,SW,219,13.0,13.0,56,0.00,,,0.60,meteohub,2013-06-17 20:24:00,
2013-06-17 15:26:00,89.4,71.6,-100.00,SW,217,6.0,10.0,56,0.00,,,0.60,meteohub,2013-06-17 20:26:00,
2013-06-17 15:29:00,89.4,71.6,-100.00,SW,227,7.0,10.0,56,0.00,,,0.60,meteohub,2013-06-17 20:29:00,
2013-06-17 15:30:00,89.4,71.6,-100.00,SW,231,5.0,10.0,56,0.00,,,0.60,meteohub,2013-06-17 20:30:00,
2013-06-17 15:31:00,89.4,71.6,-100.00,SW,225,3.0,13.0,56,0.00,,,0.60,meteohub,2013-06-17 20:31:00,
2013-06-17 15:34:00,89.8,72.0,-100.00,SW,232,2.0,13.0,56,0.00,,,0.60,meteohub,2013-06-17 20:34:00,
2013-06-17 15:35:00,89.4,72.7,-100.00,WSW,257,7.0,13.0,58,0.00,,,0.60,meteohub,2013-06-17 20:35:00,
2013-06-17 15:36:00,89.4,71.6,-100.00,West,265,2.0,13.0,56,0.00,,,0.60,meteohub,2013-06-17 20:36:00,
2013-06-17 15:37:00,89.4,72.7,-100.00,West,266,1.0,13.0,58,0.00,,,0.60,meteohub,2013-06-17 20:37:00,
2013-06-17 15:39:00,89.4,72.1,-100.00,SW,221,5.0,13.0,57,0.00,,,0.60,meteohub,2013-06-17 20:39:00,
2013-06-17 15:40:00,89.4,71.6,-100.00,SW,222,5.0,10.0,56,0.00,,,0.60,meteohub,2013-06-17 20:40:00,
2013-06-17 15:41:00,89.8,73.6,-100.00,SW,224,5.0,10.0,59,0.00,,,0.60,meteohub,2013-06-17 20:41:00,
2013-06-17 15:42:00,89.8,72.5,-100.00,SW,226,2.0,10.0,57,0.00,,,0.60,meteohub,2013-06-17 20:42:00,
2013-06-17 15:44:00,90.0,72.7,-100.00,WSW,242,0.0,10.0,57,0.00,,,0.60,meteohub,2013-06-17 20:44:00,
2013-06-17 15:46:00,90.0,72.1,-100.00,WSW,240,3.0,10.0,56,0.00,,,0.60,meteohub,2013-06-17 20:46:00,
2013-06-17 15:47:00,90.0,72.1,-100.00,SW,234,6.0,10.0,56,0.00,,,0.60,meteohub,2013-06-17 20:47:00,
2013-06-17 15:50:00,90.1,71.2,-100.00,WSW,246,4.0,10.0,54,0.00,,,0.60,meteohub,2013-06-17 20:50:00,
2013-06-17 15:51:00,90.1,72.3,-100.00,WSW,251,0.0,10.0,56,0.00,,,0.60,meteohub,2013-06-17 20:51:00,
2013-06-17 15:52:00,90.0,72.1,-100.00,West,267,5.0,10.0,56,0.00,,,0.60,meteohub,2013-06-17 20:52:00,
2013-06-17 15:53:00,90.0,72.1,-100.00,WSW,248,4.0,10.0,56,0.00,,,0.60,meteohub,2013-06-17 20:53:00,
2013-06-17 15:56:00,90.0,72.7,-100.00,WSW,249,3.0,9.0,57,0.00,,,0.60,meteohub,2013-06-17 20:56:00,
2013-06-17 15:57:00,90.0,72.7,-100.00,West,260,3.0,9.0,57,0.00,,,0.60,meteohub,2013-06-17 20:57:00,
2013-06-17 15:58:00,90.0,72.1,-100.00,West,266,2.0,9.0,56,0.00,,,0.60,meteohub,2013-06-17 20:58:00,
2013-06-17 15:59:00,90.0,72.7,-100.00,West,267,6.0,9.0,57,0.00,,,0.60,meteohub,2013-06-17 20:59:00,
2013-06-17 16:01:00,89.8,73.0,-100.00,WNW,286,5.0,9.0,58,0.00,,,0.60,meteohub,2013-06-17 21:01:00,
2013-06-17 16:02:00,89.8,73.0,-100.00,WNW,289,6.0,9.0,58,0.00,,,0.60,meteohub,2013-06-17 21:02:00,
2013-06-17 16:03:00,89.8,72.5,-100.00,WNW,289,5.0,9.0,57,0.00,,,0.60,meteohub,2013-06-17 21:03:00,
2013-06-17 16:04:00,89.4,72.7,-100.00,WNW,285,7.0,9.0,58,0.00,,,0.60,meteohub,2013-06-17 21:04:00,
2013-06-17 16:07:00,89.2,72.5,-100.00,West,278,5.0,9.0,58,0.00,,,0.60,meteohub,2013-06-17 21:07:00,
2013-06-17 16:08:00,89.2,72.0,-100.00,West,277,3.0,9.0,57,0.00,,,0.60,meteohub,2013-06-17 21:08:00,
2013-06-17 16:09:00,89.1,71.8,-100.00,WNW,285,2.0,9.0,57,0.00,,,0.60,meteohub,2013-06-17 21:09:00,
2013-06-17 16:12:00,88.5,71.8,-100.00,WNW,285,4.0,9.0,58,0.00,,,0.60,meteohub,2013-06-17 21:12:00,
2013-06-17 16:13:00,88.5,71.8,-100.00,WNW,285,4.0,9.0,58,0.00,,,0.60,meteohub,2013-06-17 21:13:00,
2013-06-17 16:14:00,88.3,71.6,-100.00,WNW,285,2.0,9.0,58,0.00,,,0.60,meteohub,2013-06-17 21:14:00,
2013-06-17 16:17:00,88.2,72.5,-100.00,West,281,4.0,9.0,60,0.00,,,0.60,meteohub,2013-06-17 21:17:00,
2013-06-17 16:18:00,88.2,72.5,-100.00,West,281,2.0,9.0,60,0.00,,,0.60,meteohub,2013-06-17 21:18:00,
2013-06-17 16:19:00,88.0,71.8,-100.00,West,281,1.0,9.0,59,0.00,,,0.60,meteohub,2013-06-17 21:19:00,
2013-06-17 16:20:00,88.0,71.8,-100.00,West,281,1.0,9.0,59,0.00,,,0.60,meteohub,2013-06-17 21:20:00,
2013-06-17 16:22:00,88.2,72.5,-100.00,West,277,4.0,9.0,60,0.00,,,0.60,meteohub,2013-06-17 21:22:00,
2013-06-17 16:23:00,88.3,72.7,-100.00,West,277,1.0,9.0,60,0.00,,,0.60,meteohub,2013-06-17 21:23:00,
2013-06-17 16:24:00,88.5,72.3,-100.00,West,277,2.0,9.0,59,0.00,,,0.60,meteohub,2013-06-17 21:24:00,
2013-06-17 16:25:00,88.5,72.3,-100.00,West,277,1.0,9.0,59,0.00,,,0.60,meteohub,2013-06-17 21:25:00,
2013-06-17 16:28:00,89.1,71.8,-100.00,West,277,4.0,6.0,57,0.00,,,0.60,meteohub,2013-06-17 21:28:00,
2013-06-17 16:30:00,89.2,73.0,-100.00,West,276,1.0,6.0,59,0.00,,,0.60,meteohub,2013-06-17 21:30:00,
2013-06-17 16:33:00,89.4,72.1,-100.00,West,276,0.0,5.0,57,0.00,,,0.60,meteohub,2013-06-17 21:33:00,
2013-06-17 16:35:00,89.4,72.1,-100.00,West,276,0.0,5.0,57,0.00,,,0.60,meteohub,2013-06-17 21:35:00,
2013-06-17 16:38:00,89.2,71.4,-100.00,West,277,0.0,5.0,56,0.00,,,0.60,meteohub,2013-06-17 21:38:00,
2013-06-17 16:39:00,89.2,71.4,-100.00,West,276,0.0,5.0,56,0.00,,,0.60,meteohub,2013-06-17 21:39:00,
2013-06-17 16:40:00,89.2,72.5,-100.00,West,276,0.0,5.0,58,0.00,,,0.60,meteohub,2013-06-17 21:40:00,
2013-06-17 16:44:00,89.2,71.4,-100.00,West,276,0.0,4.0,56,0.00,,,0.60,meteohub,2013-06-17 21:44:00,
2013-06-17 16:45:00,89.2,71.4,-100.00,West,276,1.0,4.0,56,0.00,,,0.60,meteohub,2013-06-17 21:45:00,
2013-06-17 16:46:00,89.2,71.4,-100.00,West,277,0.0,4.0,56,0.00,,,0.60,meteohub,2013-06-17 21:46:00,
2013-06-17 16:49:00,89.4,71.6,-100.00,West,276,2.0,4.0,56,0.00,,,0.60,meteohub,2013-06-17 21:49:00,
2013-06-17 16:50:00,89.4,71.6,-100.00,West,276,3.0,4.0,56,0.00,,,0.60,meteohub,2013-06-17 21:50:00,
2013-06-17 16:51:00,89.8,72.0,-100.00,West,276,2.0,3.0,56,0.00,,,0.60,meteohub,2013-06-17 21:51:00,
2013-06-17 16:54:00,90.1,72.3,-100.00,West,273,2.0,3.0,56,0.00,,,0.60,meteohub,2013-06-17 21:54:00,
2013-06-17 16:55:00,90.1,73.4,-100.00,West,271,3.0,3.0,58,0.00,,,0.60,meteohub,2013-06-17 21:55:00,
2013-06-17 16:56:00,90.0,71.6,-100.00,West,271,3.0,4.0,55,0.00,,,0.60,meteohub,2013-06-17 21:56:00,
2013-06-17 16:59:00,89.8,73.0,-100.00,West,271,1.0,4.0,58,0.00,,,0.60,meteohub,2013-06-17 21:59:00,
2013-06-17 17:00:00,89.8,73.0,-100.00,West,271,3.0,4.0,58,0.00,,,0.60,meteohub,2013-06-17 22:00:00,
2013-06-17 17:01:00,89.4,72.7,-100.00,West,270,1.0,4.0,58,0.00,,,0.60,meteohub,2013-06-17 22:01:00,
2013-06-17 17:02:00,89.4,72.7,-100.00,West,270,2.0,4.0,58,0.00,,,0.60,meteohub,2013-06-17 22:02:00,
2013-06-17 17:04:00,89.8,73.0,-100.00,WSW,257,0.0,4.0,58,0.00,,,0.60,meteohub,2013-06-17 22:04:00,
2013-06-17 17:05:00,90.0,72.7,-100.00,WSW,246,5.0,5.0,57,0.00,,,0.60,meteohub,2013-06-17 22:05:00,
2013-06-17 17:07:00,90.0,72.7,-100.00,SSW,213,5.0,5.0,57,0.00,,,0.60,meteohub,2013-06-17 22:07:00,
2013-06-17 17:10:00,90.0,72.1,-100.00,SSW,210,2.0,5.0,56,0.00,,,0.60,meteohub,2013-06-17 22:10:00,
2013-06-17 17:11:00,90.0,72.1,-100.00,SSW,209,4.0,9.0,56,0.00,,,0.60,meteohub,2013-06-17 22:11:00,
2013-06-17 17:12:00,90.0,72.1,-100.00,SSW,209,1.0,9.0,56,0.00,,,0.60,meteohub,2013-06-17 22:12:00,
2013-06-17 17:13:00,90.0,72.1,-100.00,SSW,209,0.0,9.0,56,0.00,,,0.60,meteohub,2013-06-17 22:13:00,
2013-06-17 17:16:00,90.0,73.2,-100.00,SSW,205,5.0,9.0,58,0.00,,,0.60,meteohub,2013-06-17 22:16:00,
2013-06-17 17:17:00,90.0,72.1,-100.00,SSW,195,7.0,9.0,56,0.00,,,0.60,meteohub,2013-06-17 22:17:00,
2013-06-17 17:18:00,90.1,72.3,-100.00,SSW,194,2.0,9.0,56,0.00,,,0.60,meteohub,2013-06-17 22:18:00,
2013-06-17 17:21:00,90.1,72.9,-100.00,SSW,193,5.0,9.0,57,0.00,,,0.60,meteohub,2013-06-17 22:21:00,
2013-06-17 17:22:00,90.1,72.9,-100.00,South,191,3.0,9.0,57,0.00,,,0.60,meteohub,2013-06-17 22:22:00,
2013-06-17 17:24:00,90.0,72.1,-100.00,South,190,4.0,9.0,56,0.00,,,0.60,meteohub,2013-06-17 22:24:00,
2013-06-17 17:26:00,89.8,72.5,-100.00,South,189,2.0,7.0,57,0.00,,,0.60,meteohub,2013-06-17 22:26:00,
2013-06-17 17:27:00,89.8,72.5,-100.00,South,189,3.0,7.0,57,0.00,,,0.60,meteohub,2013-06-17 22:27:00,
2013-06-17 17:28:00,89.4,72.1,-100.00,South,189,2.0,7.0,57,0.00,,,0.60,meteohub,2013-06-17 22:28:00,
2013-06-17 17:29:00,89.2,72.0,-100.00,South,189,3.0,7.0,57,0.00,,,0.60,meteohub,2013-06-17 22:29:00,
2013-06-17 17:31:00,88.9,72.7,-100.00,South,189,2.0,7.0,59,0.00,,,0.60,meteohub,2013-06-17 22:31:00,
2013-06-17 17:33:00,88.3,72.1,-100.00,South,189,0.0,7.0,59,0.00,,,0.60,meteohub,2013-06-17 22:33:00,
2013-06-17 17:34:00,88.3,72.7,-100.00,South,189,3.0,7.0,60,0.00,,,0.60,meteohub,2013-06-17 22:34:00,
2013-06-17 17:36:00,88.2,72.0,-100.00,South,189,3.0,6.0,59,0.00,,,0.60,meteohub,2013-06-17 22:36:00,
2013-06-17 17:38:00,88.0,71.8,-100.00,South,189,2.0,6.0,59,0.00,,,0.60,meteohub,2013-06-17 22:38:00,
2013-06-17 17:39:00,88.0,72.3,-100.00,South,189,3.0,6.0,60,0.00,,,0.60,meteohub,2013-06-17 22:39:00,
2013-06-17 17:40:00,88.0,72.3,-100.00,South,189,2.0,6.0,60,0.00,,,0.60,meteohub,2013-06-17 22:40:00,
2013-06-17 17:41:00,88.0,72.3,-100.00,South,189,2.0,5.0,60,0.00,,,0.60,meteohub,2013-06-17 22:41:00,
2013-06-17 17:43:00,87.8,72.1,-100.00,South,189,0.0,5.0,60,0.00,,,0.60,meteohub,2013-06-17 22:43:00,
2013-06-17 17:44:00,87.8,72.1,-100.00,South,189,0.0,5.0,60,0.00,,,0.60,meteohub,2013-06-17 22:44:00,
2013-06-17 17:45:00,87.8,72.7,-100.00,South,189,1.0,5.0,61,0.00,,,0.60,meteohub,2013-06-17 22:45:00,
2013-06-17 17:46:00,87.8,72.7,-100.00,South,189,1.0,5.0,61,0.00,,,0.60,meteohub,2013-06-17 22:46:00,
2013-06-17 17:48:00,87.6,73.0,-100.00,South,189,2.0,5.0,62,0.00,,,0.60,meteohub,2013-06-17 22:48:00,
2013-06-17 17:49:00,87.6,73.0,-100.00,South,189,2.0,5.0,62,0.00,,,0.60,meteohub,2013-06-17 22:49:00,
2013-06-17 17:51:00,87.4,72.9,-100.00,South,189,1.0,5.0,62,0.00,,,0.60,meteohub,2013-06-17 22:51:00,
2013-06-17 17:54:00,87.3,73.6,-100.00,South,189,2.0,5.0,64,0.00,,,0.60,meteohub,2013-06-17 22:54:00,
2013-06-17 17:56:00,86.7,73.0,-100.00,South,189,2.0,4.0,64,0.00,,,0.60,meteohub,2013-06-17 22:56:00,
2013-06-17 17:59:00,86.7,73.9,-100.00,South,189,1.0,4.0,66,0.00,,,0.60,meteohub,2013-06-17 22:59:00,
2013-06-17 18:00:00,86.5,73.8,-100.00,South,189,4.0,4.0,66,0.00,,,0.60,meteohub,2013-06-17 23:00:00,
2013-06-17 18:01:00,86.5,73.8,-100.00,South,189,3.0,4.0,66,0.00,,,0.60,meteohub,2013-06-17 23:01:00,
2013-06-17 18:02:00,86.5,74.3,-100.00,South,189,3.0,4.0,67,0.00,,,0.60,meteohub,2013-06-17 23:02:00,
2013-06-17 18:04:00,86.4,74.1,-100.00,South,189,3.0,4.0,67,0.00,,,0.60,meteohub,2013-06-17 23:04:00,
2013-06-17 18:05:00,86.4,74.1,-100.00,South,189,2.0,5.0,67,0.00,,,0.60,meteohub,2013-06-17 23:05:00,
2013-06-17 18:06:00,86.4,74.1,-100.00,South,189,2.0,5.0,67,0.00,,,0.60,meteohub,2013-06-17 23:06:00,
2013-06-17 18:07:00,86.4,74.5,-100.00,South,188,3.0,5.0,68,0.00,,,0.60,meteohub,2013-06-17 23:07:00,
2013-06-17 18:08:00,86.2,74.8,-100.00,SSE,162,5.0,5.0,69,0.00,,,0.60,meteohub,2013-06-17 23:08:00,
2013-06-17 18:10:00,85.6,74.3,-100.00,NE,53,7.0,12.0,69,0.00,,,0.60,meteohub,2013-06-17 23:10:00,
2013-06-17 18:11:00,85.5,74.5,-100.00,NE,45,7.0,12.0,70,0.00,,,0.60,meteohub,2013-06-17 23:11:00,
2013-06-17 18:12:00,85.3,74.8,-100.00,NE,47,4.0,12.0,71,0.00,,,0.60,meteohub,2013-06-17 23:12:00,
2013-06-17 18:13:00,85.1,74.7,-100.00,NE,46,2.0,12.0,71,0.00,,,0.60,meteohub,2013-06-17 23:13:00,
2013-06-17 18:16:00,84.7,75.2,-100.00,NE,43,1.0,12.0,73,0.00,,,0.60,meteohub,2013-06-17 23:16:00,
2013-06-17 18:17:00,84.6,75.0,-100.00,NE,43,1.0,12.0,73,0.00,,,0.60,meteohub,2013-06-17 23:17:00,
2013-06-17 18:18:00,84.4,75.2,-100.00,NE,43,2.0,12.0,74,0.00,,,0.60,meteohub,2013-06-17 23:18:00,
2013-06-17 18:22:00,84.0,75.2,-100.00,NE,44,3.0,12.0,75,0.00,,,0.60,meteohub,2013-06-17 23:22:00,
2013-06-17 18:23:00,84.0,75.2,-100.00,NE,42,4.0,12.0,75,0.00,,,0.60,meteohub,2013-06-17 23:23:00,
2013-06-17 18:27:00,83.7,75.2,-100.00,NE,37,6.0,10.0,76,0.00,,,0.60,meteohub,2013-06-17 23:27:00,
2013-06-17 18:28:00,83.7,75.2,-100.00,NNE,28,5.0,10.0,76,0.00,,,0.60,meteohub,2013-06-17 23:28:00,
2013-06-17 18:29:00,83.7,75.2,-100.00,NNE,22,7.0,10.0,76,0.00,,,0.60,meteohub,2013-06-17 23:29:00,
2013-06-17 18:32:00,83.5,75.0,-100.00,NNE,19,0.0,7.0,76,0.00,,,0.60,meteohub,2013-06-17 23:32:00,
2013-06-17 18:33:00,83.1,74.3,-100.00,NNE,19,5.0,7.0,75,0.00,,,0.60,meteohub,2013-06-17 23:33:00,
2013-06-17 18:34:00,83.1,74.3,-100.00,NNE,19,2.0,7.0,75,0.00,,,0.60,meteohub,2013-06-17 23:34:00,
2013-06-17 18:37:00,82.9,74.7,-100.00,NNE,19,4.0,7.0,76,0.00,,,0.60,meteohub,2013-06-17 23:37:00,
2013-06-17 18:39:00,82.9,74.7,-100.00,NNE,19,1.0,7.0,76,0.00,,,0.60,meteohub,2013-06-17 23:39:00,
2013-06-17 18:40:00,82.9,74.7,-100.00,NNE,19,1.0,7.0,76,0.00,,,0.60,meteohub,2013-06-17 23:40:00,
2013-06-17 18:42:00,82.9,75.0,-100.00,NNE,19,2.0,7.0,77,0.00,,,0.60,meteohub,2013-06-17 23:42:00,
2013-06-17 18:44:00,82.9,75.0,-100.00,NNE,19,1.0,7.0,77,0.00,,,0.60,meteohub,2013-06-17 23:44:00,
2013-06-17 18:45:00,82.9,75.0,-100.00,NNE,19,0.0,7.0,77,0.00,,,0.60,meteohub,2013-06-17 23:45:00,
2013-06-17 18:48:00,82.9,75.4,-100.00,NNE,19,3.0,6.0,78,0.00,,,0.60,meteohub,2013-06-17 23:48:00,
2013-06-17 18:49:00,83.1,75.2,-100.00,NNE,19,1.0,6.0,77,0.00,,,0.60,meteohub,2013-06-17 23:49:00,
2013-06-17 18:50:00,83.1,75.6,-100.00,NNE,19,1.0,6.0,78,0.00,,,0.60,meteohub,2013-06-17 23:50:00,
2013-06-17 18:53:00,83.1,75.2,-100.00,NNE,19,2.0,5.0,77,0.00,,,0.60,meteohub,2013-06-17 23:53:00,
2013-06-17 18:54:00,83.1,75.2,-100.00,NNE,20,2.0,5.0,77,0.00,,,0.60,meteohub,2013-06-17 23:54:00,
2013-06-17 18:56:00,83.1,75.2,-100.00,NNE,20,1.0,5.0,77,0.00,,,0.60,meteohub,2013-06-17 23:56:00,
2013-06-17 18:57:00,83.1,75.2,-100.00,NNE,20,0.0,5.0,77,0.00,,,0.60,meteohub,2013-06-17 23:57:00,
2013-06-17 18:59:00,83.5,75.6,-100.00,NNE,20,1.0,5.0,77,0.00,,,0.60,meteohub,2013-06-17 23:59:00,
2013-06-17 19:01:00,83.5,75.6,-100.00,NNE,20,4.0,6.0,77,0.00,,,0.60,meteohub,2013-06-18 00:01:00,
2013-06-17 19:04:00,83.5,75.0,-100.00,NNE,20,0.0,6.0,76,0.00,,,0.60,meteohub,2013-06-18 00:04:00,
2013-06-17 19:06:00,83.5,75.6,-100.00,NNE,20,0.0,6.0,77,0.00,,,0.60,meteohub,2013-06-18 00:06:00,
2013-06-17 19:07:00,83.7,75.2,-100.00,NNE,20,0.0,6.0,76,0.00,,,0.60,meteohub,2013-06-18 00:07:00,
2013-06-17 19:09:00,83.7,74.8,-100.00,NNE,20,1.0,6.0,75,0.00,,,0.60,meteohub,2013-06-18 00:09:00,
2013-06-17 19:10:00,83.7,74.8,-100.00,NNE,20,2.0,6.0,75,0.00,,,0.60,meteohub,2013-06-18 00:10:00,
2013-06-17 19:12:00,83.7,74.5,-100.00,NNE,24,1.0,5.0,74,0.00,,,0.60,meteohub,2013-06-18 00:12:00,
2013-06-17 19:14:00,83.7,74.5,-100.00,NNE,24,0.0,5.0,74,0.00,,,0.60,meteohub,2013-06-18 00:14:00,
2013-06-17 19:15:00,83.7,74.5,-100.00,NNE,24,3.0,5.0,74,0.00,,,0.60,meteohub,2013-06-18 00:15:00,
2013-06-17 19:17:00,83.7,74.1,-100.00,NNE,24,2.0,5.0,73,0.00,,,0.60,meteohub,2013-06-18 00:17:00,
2013-06-17 19:20:00,83.7,74.1,-100.00,NNE,24,2.0,5.0,73,0.00,,,0.60,meteohub,2013-06-18 00:20:00,
2013-06-17 19:22:00,83.7,74.1,-100.00,NNE,24,0.0,4.0,73,0.00,,,0.60,meteohub,2013-06-18 00:22:00,
2013-06-17 19:25:00,83.7,74.1,-100.00,NNE,24,2.0,4.0,73,0.00,,,0.60,meteohub,2013-06-18 00:25:00,
2013-06-17 19:27:00,83.5,73.6,-100.00,NNE,24,3.0,4.0,72,0.00,,,0.60,meteohub,2013-06-18 00:27:00,
2013-06-17 19:28:00,83.5,73.6,-100.00,NNE,24,2.0,4.0,72,0.00,,,0.60,meteohub,2013-06-18 00:28:00,
2013-06-17 19:30:00,83.5,73.6,-100.00,NNE,24,3.0,4.0,72,0.00,,,0.60,meteohub,2013-06-18 00:30:00,
2013-06-17 19:32:00,83.5,73.6,-100.00,NNE,24,0.0,4.0,72,0.00,,,0.60,meteohub,2013-06-18 00:32:00,
2013-06-17 19:33:00,83.5,73.6,-100.00,NNE,24,0.0,4.0,72,0.00,,,0.60,meteohub,2013-06-18 00:33:00,
2013-06-17 19:35:00,83.5,73.6,-100.00,NNE,24,0.0,4.0,72,0.00,,,0.60,meteohub,2013-06-18 00:35:00,
2013-06-17 19:37:00,83.5,73.6,-100.00,NNE,24,0.0,4.0,72,0.00,,,0.60,meteohub,2013-06-18 00:37:00,
2013-06-17 19:38:00,83.5,73.6,-100.00,NNE,24,0.0,4.0,72,0.00,,,0.60,meteohub,2013-06-18 00:38:00,
2013-06-17 19:40:00,83.5,73.6,-100.00,NNE,24,1.0,4.0,72,0.00,,,0.60,meteohub,2013-06-18 00:40:00,
2013-06-17 19:42:00,83.5,73.6,-100.00,NNE,24,0.0,3.0,72,0.00,,,0.60,meteohub,2013-06-18 00:42:00,
2013-06-17 19:43:00,83.5,73.6,-100.00,NNE,24,0.0,3.0,72,0.00,,,0.60,meteohub,2013-06-18 00:43:00,
2013-06-17 19:44:00,83.5,73.6,-100.00,NNE,24,0.0,3.0,72,0.00,,,0.60,meteohub,2013-06-18 00:44:00,
2013-06-17 19:46:00,83.1,73.2,-100.00,NNE,24,0.0,3.0,72,0.00,,,0.60,meteohub,2013-06-18 00:46:00,
2013-06-17 19:47:00,83.1,73.2,-100.00,NNE,24,0.0,3.0,72,0.00,,,0.60,meteohub,2013-06-18 00:47:00,
2013-06-17 19:49:00,83.1,73.2,-100.00,NNE,24,0.0,3.0,72,0.00,,,0.60,meteohub,2013-06-18 00:49:00,
2013-06-17 19:51:00,83.1,73.2,-100.00,NNE,24,0.0,3.0,72,0.00,,,0.60,meteohub,2013-06-18 00:51:00,
2013-06-17 19:52:00,83.1,73.2,-100.00,NNE,24,0.0,3.0,72,0.00,,,0.60,meteohub,2013-06-18 00:52:00,
2013-06-17 19:54:00,83.1,73.2,-100.00,NNE,24,0.0,3.0,72,0.00,,,0.60,meteohub,2013-06-18 00:54:00,
2013-06-17 19:55:00,83.1,73.2,-100.00,NNE,24,0.0,3.0,72,0.00,,,0.60,meteohub,2013-06-18 00:55:00,
2013-06-17 19:56:00,83.1,73.2,-100.00,NNE,24,0.0,3.0,72,0.00,,,0.60,meteohub,2013-06-18 00:56:00,
2013-06-17 19:57:00,83.1,73.2,-100.00,NNE,24,0.0,3.0,72,0.00,,,0.60,meteohub,2013-06-18 00:57:00,
2013-06-17 20:00:00,83.1,73.6,-100.00,NNE,24,0.0,3.0,73,0.00,,,0.60,meteohub,2013-06-18 01:00:00,
2013-06-17 20:02:00,83.1,73.6,-100.00,NE,47,0.0,0.0,73,0.00,,,0.60,meteohub,2013-06-18 01:02:00,
2013-06-17 20:03:00,83.1,73.6,-100.00,NE,47,0.0,0.0,73,0.00,,,0.60,meteohub,2013-06-18 01:03:00,
2013-06-17 20:05:00,83.1,73.6,-100.00,NE,47,0.0,0.0,73,0.00,,,0.60,meteohub,2013-06-18 01:05:00,
2013-06-17 20:07:00,83.1,73.6,-100.00,NE,47,0.0,0.0,73,0.00,,,0.60,meteohub,2013-06-18 01:07:00,
2013-06-17 20:08:00,83.1,73.6,-100.00,NE,47,0.0,0.0,73,0.00,,,0.60,meteohub,2013-06-18 01:08:00,
2013-06-17 20:10:00,82.9,73.8,-100.00,NE,47,0.0,0.0,74,0.00,,,0.60,meteohub,2013-06-18 01:10:00,
2013-06-17 20:11:00,82.9,73.8,-100.00,NE,47,0.0,1.0,74,0.00,,,0.60,meteohub,2013-06-18 01:11:00,
2013-06-17 20:12:00,82.9,73.8,-100.00,NE,47,1.0,1.0,74,0.00,,,0.60,meteohub,2013-06-18 01:12:00,
2013-06-17 20:13:00,82.9,73.8,-100.00,NE,47,3.0,3.0,74,0.00,,,0.60,meteohub,2013-06-18 01:13:00,
2013-06-17 20:15:00,82.9,74.7,-100.00,NE,47,0.0,3.0,76,0.00,,,0.60,meteohub,2013-06-18 01:15:00,
2013-06-17 20:16:00,82.9,74.7,-100.00,NE,47,0.0,3.0,76,0.00,,,0.60,meteohub,2013-06-18 01:16:00,
2013-06-17 20:18:00,82.8,74.5,-100.00,NE,47,0.0,3.0,76,0.00,,,0.60,meteohub,2013-06-18 01:18:00,
2013-06-17 20:20:00,82.6,74.3,-100.00,NE,47,0.0,3.0,76,0.00,,,0.60,meteohub,2013-06-18 01:20:00,
2013-06-17 20:21:00,82.6,74.3,-100.00,NE,47,0.0,3.0,76,0.00,,,0.60,meteohub,2013-06-18 01:21:00,
2013-06-17 20:23:00,82.4,74.5,-100.00,NE,47,0.0,3.0,77,0.00,,,0.60,meteohub,2013-06-18 01:23:00,
2013-06-17 20:26:00,82.2,74.3,-100.00,NE,47,0.0,3.0,77,0.00,,,0.60,meteohub,2013-06-18 01:26:00,
2013-06-17 20:27:00,82.2,74.3,-100.00,NE,47,0.0,3.0,77,0.00,,,0.60,meteohub,2013-06-18 01:27:00,
2013-06-17 20:28:00,82.2,74.3,-100.00,NE,47,0.0,3.0,77,0.00,,,0.60,meteohub,2013-06-18 01:28:00,
2013-06-17 20:29:00,82.2,74.3,-100.00,NE,47,0.0,3.0,77,0.00,,,0.60,meteohub,2013-06-18 01:29:00,
2013-06-17 20:31:00,82.2,74.7,-100.00,NE,47,0.0,1.0,78,0.00,,,0.60,meteohub,2013-06-18 01:31:00,
2013-06-17 20:32:00,82.2,74.7,-100.00,NE,47,0.0,1.0,78,0.00,,,0.60,meteohub,2013-06-18 01:32:00,
2013-06-17 20:33:00,82.0,74.5,-100.00,NE,47,0.0,1.0,78,0.00,,,0.60,meteohub,2013-06-18 01:33:00,
2013-06-17 20:34:00,82.0,74.5,-100.00,NE,47,0.0,1.0,78,0.00,,,0.60,meteohub,2013-06-18 01:34:00,
2013-06-17 20:37:00,82.0,74.5,-100.00,NE,47,2.0,0.0,78,0.00,,,0.60,meteohub,2013-06-18 01:37:00,
2013-06-17 20:38:00,82.0,74.5,-100.00,NE,47,2.0,0.0,78,0.00,,,0.60,meteohub,2013-06-18 01:38:00,
2013-06-17 20:40:00,82.2,74.7,-100.00,NE,47,2.0,0.0,78,0.00,,,0.60,meteohub,2013-06-18 01:40:00,
2013-06-17 20:42:00,82.2,74.7,-100.00,NE,47,1.0,4.0,78,0.00,,,0.60,meteohub,2013-06-18 01:42:00,
2013-06-17 20:43:00,82.2,74.7,-100.00,NE,47,0.0,4.0,78,0.00,,,0.60,meteohub,2013-06-18 01:43:00,
2013-06-17 20:44:00,82.2,74.7,-100.00,NE,47,0.0,4.0,78,0.00,,,0.60,meteohub,2013-06-18 01:44:00,
2013-06-17 20:45:00,82.2,74.7,-100.00,NE,47,0.0,4.0,78,0.00,,,0.60,meteohub,2013-06-18 01:45:00,
2013-06-17 20:47:00,82.0,74.5,-100.00,NE,47,0.0,4.0,78,0.00,,,0.60,meteohub,2013-06-18 01:47:00,
2013-06-17 20:48:00,82.0,74.5,-100.00,NE,47,0.0,4.0,78,0.00,,,0.60,meteohub,2013-06-18 01:48:00,
2013-06-17 20:49:00,82.0,74.5,-100.00,NE,47,0.0,4.0,78,0.00,,,0.60,meteohub,2013-06-18 01:49:00,
2013-06-17 20:50:00,82.0,74.5,-100.00,NE,47,0.0,4.0,78,0.00,,,0.60,meteohub,2013-06-18 01:50:00,
2013-06-17 20:53:00,82.0,74.8,-100.00,NE,47,0.0,4.0,79,0.00,,,0.60,meteohub,2013-06-18 01:53:00,
2013-06-17 20:54:00,82.0,74.8,-100.00,NE,47,0.0,4.0,79,0.00,,,0.60,meteohub,2013-06-18 01:54:00,
2013-06-17 20:56:00,81.9,74.7,-100.00,NE,47,0.0,3.0,79,0.00,,,0.60,meteohub,2013-06-18 01:56:00,
2013-06-17 20:59:00,81.9,75.0,-100.00,NE,47,2.0,3.0,80,0.00,,,0.60,meteohub,2013-06-18 01:59:00,
2013-06-17 21:01:00,81.9,75.0,-100.00,NE,47,3.0,3.0,80,0.00,,,0.60,meteohub,2013-06-18 02:01:00,
2013-06-17 21:04:00,81.7,74.8,-100.00,NE,47,2.0,3.0,80,0.00,,,0.60,meteohub,2013-06-18 02:04:00,
2013-06-17 21:05:00,81.7,74.8,-100.00,NE,47,2.0,3.0,80,0.00,,,0.60,meteohub,2013-06-18 02:05:00,
2013-06-17 21:07:00,81.7,74.8,-100.00,NE,47,2.0,4.0,80,0.00,,,0.60,meteohub,2013-06-18 02:07:00,
2013-06-17 21:09:00,81.7,74.8,-100.00,NE,47,3.0,4.0,80,0.00,,,0.60,meteohub,2013-06-18 02:09:00,
2013-06-17 21:10:00,81.7,75.2,-100.00,NE,47,2.0,4.0,81,0.00,,,0.60,meteohub,2013-06-18 02:10:00,
2013-06-17 21:14:00,81.3,74.8,-100.00,NE,50,1.0,4.0,81,0.00,,,0.60,meteohub,2013-06-18 02:14:00,
2013-06-17 21:15:00,81.3,74.8,-100.00,NE,50,3.0,4.0,81,0.00,,,0.60,meteohub,2013-06-18 02:15:00,
2013-06-17 21:19:00,81.3,74.8,-100.00,NE,50,3.0,4.0,81,0.00,,,0.60,meteohub,2013-06-18 02:19:00,
2013-06-17 21:20:00,81.3,74.8,-100.00,NE,50,2.0,4.0,81,0.00,,,0.60,meteohub,2013-06-18 02:20:00,
2013-06-17 21:21:00,81.3,74.8,-100.00,NE,50,3.0,4.0,81,0.00,,,0.60,meteohub,2013-06-18 02:21:00,
2013-06-17 21:24:00,81.1,75.2,-100.00,NE,50,1.0,4.0,82,0.00,,,0.60,meteohub,2013-06-18 02:24:00,
2013-06-17 21:25:00,81.1,75.2,-100.00,NE,50,2.0,4.0,82,0.00,,,0.60,meteohub,2013-06-18 02:25:00,
2013-06-17 21:26:00,81.1,75.2,-100.00,NE,50,1.0,4.0,82,0.00,,,0.60,meteohub,2013-06-18 02:26:00,
2013-06-17 21:27:00,81.1,75.2,-100.00,NE,50,2.0,4.0,82,0.00,,,0.60,meteohub,2013-06-18 02:27:00,
2013-06-17 21:29:00,81.1,75.2,-100.00,NE,50,3.0,4.0,82,0.00,,,0.60,meteohub,2013-06-18 02:29:00,
2013-06-17 21:30:00,81.1,75.2,-100.00,NE,50,2.0,4.0,82,0.00,,,0.60,meteohub,2013-06-18 02:30:00,
2013-06-17 21:31:00,81.1,75.2,-100.00,NE,50,0.0,4.0,82,0.00,,,0.60,meteohub,2013-06-18 02:31:00,
2013-06-17 21:32:00,81.1,75.2,-100.00,NE,50,1.0,4.0,82,0.00,,,0.60,meteohub,2013-06-18 02:32:00,
2013-06-17 21:35:00,81.1,75.6,-100.00,NE,50,2.0,4.0,83,0.00,,,0.60,meteohub,2013-06-18 02:35:00,
2013-06-17 21:36:00,81.1,75.6,-100.00,NE,50,2.0,4.0,83,0.00,,,0.60,meteohub,2013-06-18 02:36:00,
2013-06-17 21:37:00,81.1,75.6,-100.00,NE,50,3.0,4.0,83,0.00,,,0.60,meteohub,2013-06-18 02:37:00,
2013-06-17 21:40:00,81.1,75.6,-100.00,NE,50,2.0,4.0,83,0.00,,,0.60,meteohub,2013-06-18 02:40:00,
2013-06-17 21:42:00,81.1,75.6,-100.00,NE,50,2.0,4.0,83,0.00,,,0.60,meteohub,2013-06-18 02:42:00,
2013-06-17 21:43:00,81.1,75.6,-100.00,NE,50,2.0,4.0,83,0.00,,,0.60,meteohub,2013-06-18 02:43:00,
2013-06-17 21:46:00,81.1,75.6,-100.00,NE,50,2.0,4.0,83,0.00,,,0.60,meteohub,2013-06-18 02:46:00,
2013-06-17 21:47:00,81.1,75.6,-100.00,NE,50,2.0,4.0,83,0.00,,,0.60,meteohub,2013-06-18 02:47:00,
2013-06-17 21:48:00,81.1,75.6,-100.00,NE,50,1.0,4.0,83,0.00,,,0.60,meteohub,2013-06-18 02:48:00,
2013-06-17 21:52:00,81.1,75.6,-100.00,NE,50,0.0,4.0,83,0.00,,,0.60,meteohub,2013-06-18 02:52:00,
2013-06-17 21:53:00,81.1,75.6,-100.00,NE,50,0.0,4.0,83,0.00,,,0.60,meteohub,2013-06-18 02:53:00,
2013-06-17 21:57:00,81.1,75.6,-100.00,NE,50,3.0,3.0,83,0.00,,,0.60,meteohub,2013-06-18 02:57:00,
2013-06-17 21:58:00,81.1,75.6,-100.00,NE,50,2.0,3.0,83,0.00,,,0.60,meteohub,2013-06-18 02:58:00,
2013-06-17 22:02:00,81.1,75.6,-100.00,NE,50,2.0,4.0,83,0.00,,,0.60,meteohub,2013-06-18 03:02:00,
2013-06-17 22:03:00,81.1,75.6,-100.00,NE,50,3.0,4.0,83,0.00,,,0.60,meteohub,2013-06-18 03:03:00,
2013-06-17 22:04:00,81.1,75.6,-100.00,NE,50,2.0,4.0,83,0.00,,,0.60,meteohub,2013-06-18 03:04:00,
2013-06-17 22:07:00,81.0,75.4,-100.00,NE,50,2.0,4.0,83,0.00,,,0.60,meteohub,2013-06-18 03:07:00,
2013-06-17 22:08:00,81.0,75.4,-100.00,NE,50,2.0,4.0,83,0.00,,,0.60,meteohub,2013-06-18 03:08:00,
2013-06-17 22:09:00,81.0,75.4,-100.00,NE,50,3.0,4.0,83,0.00,,,0.60,meteohub,2013-06-18 03:09:00,
2013-06-17 22:12:00,81.0,75.4,-100.00,NE,50,2.0,4.0,83,0.00,,,0.60,meteohub,2013-06-18 03:12:00,
2013-06-17 22:13:00,81.0,75.4,-100.00,NE,50,1.0,4.0,83,0.00,,,0.60,meteohub,2013-06-18 03:13:00,
2013-06-17 22:14:00,81.0,75.4,-100.00,NE,50,2.0,4.0,83,0.00,,,0.60,meteohub,2013-06-18 03:14:00,
2013-06-17 22:18:00,81.0,75.4,-100.00,NE,50,1.0,4.0,83,0.00,,,0.60,meteohub,2013-06-18 03:18:00,
2013-06-17 22:19:00,81.0,75.0,-100.00,NE,50,0.0,4.0,82,0.00,,,0.60,meteohub,2013-06-18 03:19:00,
2013-06-17 22:23:00,81.0,75.0,-100.00,NE,50,2.0,4.0,82,0.00,,,0.60,meteohub,2013-06-18 03:23:00,
2013-06-17 22:24:00,81.0,75.0,-100.00,NE,50,3.0,4.0,82,0.00,,,0.60,meteohub,2013-06-18 03:24:00,
2013-06-17 22:25:00,80.8,74.8,-100.00,NE,50,2.0,4.0,82,0.00,,,0.60,meteohub,2013-06-18 03:25:00,
2013-06-17 22:28:00,80.8,74.8,-100.00,NE,50,3.0,4.0,82,0.00,,,0.60,meteohub,2013-06-18 03:28:00,
2013-06-17 22:29:00,80.8,74.8,-100.00,NE,50,2.0,4.0,82,0.00,,,0.60,meteohub,2013-06-18 03:29:00,
2013-06-17 22:30:00,80.8,74.8,-100.00,NE,50,2.0,4.0,82,0.00,,,0.60,meteohub,2013-06-18 03:30:00,
2013-06-17 22:34:00,80.8,74.8,-100.00,NE,42,1.0,6.0,82,0.00,,,0.60,meteohub,2013-06-18 03:34:00,
2013-06-17 22:35:00,80.8,74.8,-100.00,NE,41,4.0,6.0,82,0.00,,,0.60,meteohub,2013-06-18 03:35:00,
2013-06-17 22:36:00,80.4,74.1,-100.00,NE,41,3.0,8.0,81,0.00,,,0.60,meteohub,2013-06-18 03:36:00,
2013-06-17 22:39:00,80.4,74.1,-100.00,NE,46,2.0,8.0,81,0.00,,,0.60,meteohub,2013-06-18 03:39:00,
2013-06-17 22:40:00,80.4,74.1,-100.00,NE,46,2.0,8.0,81,0.00,,,0.60,meteohub,2013-06-18 03:40:00,
2013-06-17 22:42:00,80.2,73.9,-100.00,NE,47,6.0,8.0,81,0.00,,,0.60,meteohub,2013-06-18 03:42:00,
2013-06-17 22:44:00,80.2,73.6,-100.00,NE,50,7.0,8.0,80,0.00,,,0.60,meteohub,2013-06-18 03:44:00,
2013-06-17 22:45:00,80.2,73.6,-100.00,NE,47,3.0,8.0,80,0.00,,,0.60,meteohub,2013-06-18 03:45:00,
2013-06-17 22:46:00,80.2,73.6,-100.00,NE,47,5.0,10.0,80,0.00,,,0.60,meteohub,2013-06-18 03:46:00,
2013-06-17 22:49:00,80.2,73.0,-100.00,NE,53,6.0,10.0,79,0.00,,,0.60,meteohub,2013-06-18 03:49:00,
2013-06-17 22:50:00,80.2,73.0,-100.00,NE,45,9.0,10.0,79,0.00,,,0.60,meteohub,2013-06-18 03:50:00,
2013-06-17 22:51:00,80.2,73.0,-100.00,NE,46,3.0,10.0,79,0.00,,,0.60,meteohub,2013-06-18 03:51:00,
2013-06-17 22:54:00,80.1,73.0,-100.00,NE,45,5.0,10.0,79,0.00,,,0.60,meteohub,2013-06-18 03:54:00,
2013-06-17 22:55:00,80.1,73.0,-100.00,NE,47,4.0,10.0,79,0.00,,,0.60,meteohub,2013-06-18 03:55:00,
2013-06-17 22:56:00,80.1,73.0,-100.00,NE,47,4.0,10.0,79,0.00,,,0.60,meteohub,2013-06-18 03:56:00,
2013-06-17 22:59:00,79.9,72.9,-100.00,NE,46,4.0,10.0,79,0.00,,,0.60,meteohub,2013-06-18 03:59:00,
2013-06-17 23:00:00,79.9,72.9,-100.00,NE,46,2.0,10.0,79,0.00,,,0.60,meteohub,2013-06-18 04:00:00,
2013-06-17 23:01:00,79.9,72.9,-100.00,NE,45,6.0,10.0,79,0.00,,,0.60,meteohub,2013-06-18 04:01:00,
2013-06-17 23:02:00,79.9,72.9,-100.00,NE,45,2.0,10.0,79,0.00,,,0.60,meteohub,2013-06-18 04:02:00,
2013-06-17 23:06:00,79.9,73.2,-100.00,NE,52,3.0,9.0,80,0.00,,,0.60,meteohub,2013-06-18 04:06:00,
2013-06-17 23:07:00,79.9,73.2,-100.00,NE,50,7.0,9.0,80,0.00,,,0.60,meteohub,2013-06-18 04:07:00,
2013-06-17 23:08:00,79.9,73.2,-100.00,NE,51,3.0,9.0,80,0.00,,,0.60,meteohub,2013-06-18 04:08:00,
2013-06-17 23:11:00,79.5,72.9,-100.00,NE,52,3.0,9.0,80,0.00,,,0.60,meteohub,2013-06-18 04:11:00,
2013-06-17 23:12:00,79.5,72.9,-100.00,NE,50,4.0,9.0,80,0.00,,,0.60,meteohub,2013-06-18 04:12:00,
2013-06-17 23:13:00,79.5,72.9,-100.00,NE,47,7.0,9.0,80,0.00,,,0.60,meteohub,2013-06-18 04:13:00,
2013-06-17 23:16:00,79.5,72.9,-100.00,NE,51,7.0,8.0,80,0.00,,,0.60,meteohub,2013-06-18 04:16:00,
2013-06-17 23:17:00,79.3,72.7,-100.00,NE,52,6.0,8.0,80,0.00,,,0.60,meteohub,2013-06-18 04:17:00,
2013-06-17 23:18:00,79.3,72.7,-100.00,NE,53,2.0,8.0,80,0.00,,,0.60,meteohub,2013-06-18 04:18:00,
2013-06-17 23:22:00,79.3,73.0,-100.00,NE,55,3.0,8.0,81,0.00,,,0.60,meteohub,2013-06-18 04:22:00,
2013-06-17 23:23:00,79.3,73.0,-100.00,NE,55,3.0,8.0,81,0.00,,,0.60,meteohub,2013-06-18 04:23:00,
2013-06-17 23:24:00,79.3,73.0,-100.00,NE,55,5.0,8.0,81,0.00,,,0.60,meteohub,2013-06-18 04:24:00,
2013-06-17 23:28:00,79.2,72.9,-100.00,NE,55,3.0,7.0,81,0.00,,,0.60,meteohub,2013-06-18 04:28:00,
2013-06-17 23:29:00,79.2,72.9,-100.00,NE,56,5.0,7.0,81,0.00,,,0.60,meteohub,2013-06-18 04:29:00,
2013-06-17 23:33:00,79.2,72.9,-100.00,ENE,61,5.0,7.0,81,0.00,,,0.60,meteohub,2013-06-18 04:33:00,
2013-06-17 23:34:00,79.2,72.9,-100.00,ENE,68,5.0,7.0,81,0.00,,,0.60,meteohub,2013-06-18 04:34:00,
2013-06-17 23:38:00,79.2,72.5,-100.00,ENE,68,3.0,9.0,80,0.00,,,0.60,meteohub,2013-06-18 04:38:00,
2013-06-17 23:39:00,79.2,72.5,-100.00,ENE,68,4.0,9.0,80,0.00,,,0.60,meteohub,2013-06-18 04:39:00,
2013-06-17 23:40:00,79.2,72.5,-100.00,ENE,68,4.0,9.0,80,0.00,,,0.60,meteohub,2013-06-18 04:40:00,
2013-06-17 23:43:00,79.0,72.7,-100.00,ENE,69,4.0,9.0,81,0.00,,,0.60,meteohub,2013-06-18 04:43:00,
2013-06-17 23:45:00,79.0,72.7,-100.00,ENE,69,3.0,9.0,81,0.00,,,0.60,meteohub,2013-06-18 04:45:00,
2013-06-17 23:46:00,79.0,72.7,-100.00,ENE,69,5.0,9.0,81,0.00,,,0.60,meteohub,2013-06-18 04:46:00,
2013-06-17 23:48:00,78.8,72.5,-100.00,ENE,69,3.0,9.0,81,0.00,,,0.60,meteohub,2013-06-18 04:48:00,
2013-06-17 23:50:00,78.8,72.5,-100.00,ENE,69,3.0,9.0,81,0.00,,,0.60,meteohub,2013-06-18 04:50:00,
2013-06-17 23:51:00,78.8,72.5,-100.00,ENE,69,3.0,6.0,81,0.00,,,0.60,meteohub,2013-06-18 04:51:00,
2013-06-17 23:54:00,78.8,72.5,-100.00,ENE,69,2.0,6.0,81,0.00,,,0.60,meteohub,2013-06-18 04:54:00,
2013-06-17 23:55:00,78.8,72.5,-100.00,ENE,69,3.0,6.0,81,0.00,,,0.60,meteohub,2013-06-18 04:55:00,
2013-06-17 23:56:00,78.8,72.5,-100.00,ENE,69,3.0,5.0,81,0.00,,,0.60,meteohub,2013-06-18 04:56:00,
2013-06-17 23:59:00,78.6,72.7,-100.00,ENE,69,3.0,5.0,82,0.00,,,0.60,meteohub,2013-06-18 04:59:00,